<- Previous Day | Today | Next Day ->

All Data for 10 August 2020

 

Time A - D Temp A - D Dew Point A - D Humidity A - D Pressure A - D Wind A - D Wind Dir Gust A - D Rain Rate A - D Rain Total
00:00 15.8 13.1 84 1016.2 3.8 N 6.0 0.0 0.0
00:01 15.8 13.1 84 1016.2 5.4 NE 6.0 0.0 0.0
00:02 15.8 13.1 84 1016.1 5.4 N 6.0 0.0 0.0
00:03 15.8 13.1 84 1016.2 5.4 N 6.0 0.0 0.0
00:04 15.8 13.1 84 1016.4 4.5 NE 6.0 0.0 0.0
00:05 15.8 13.1 84 1016.2 4.5 NE 6.0 0.0 0.0
00:06 15.8 13.1 84 1016.3 3.8 N 6.0 0.0 0.0
00:07 15.8 13.1 84 1016.1 3.8 NE 6.0 0.0 0.0
00:08 15.8 13.1 84 1016.3 6.0 W 6.0 0.0 0.0
00:09 15.8 13.1 84 1016.4 3.1 N 6.0 0.0 0.0
00:10 15.8 13.1 84 1016.2 3.1 NE 6.0 0.0 0.0
00:11 15.8 13.1 84 1016.1 3.1 N 6.0 0.0 0.0
00:12 15.8 13.1 84 1016.2 3.1 N 6.0 0.0 0.0
00:13 15.8 13.1 84 1016.1 4.5 ENE 6.0 0.0 0.0
00:14 15.8 13.1 84 1015.9 4.5 NE 6.0 0.0 0.0
00:15 15.8 13.1 84 1016.2 8.3 N 8.3 0.0 0.0
00:16 15.8 13.1 84 1015.9 8.3 N 8.3 0.0 0.0
00:17 15.8 13.1 84 1015.8 4.5 N 8.3 0.0 0.0
00:18 15.8 13.1 84 1016.0 4.5 E 8.3 0.0 0.0
00:19 15.8 13.1 84 1016.3 4.5 N 8.3 0.0 0.0
00:20 15.9 13.4 85 1016.0 4.5 N 8.3 0.0 0.0
00:21 15.9 13.4 85 1016.0 4.5 N 8.3 0.0 0.0
00:22 15.9 13.4 85 1015.9 3.8 NE 8.3 0.0 0.0
00:23 15.9 13.4 85 1016.3 4.5 NNW 8.3 0.0 0.0
00:24 15.9 13.4 85 1016.0 8.3 E 8.3 0.0 0.0
00:25 15.9 13.4 85 1016.3 5.4 NW 8.3 0.0 0.0
00:26 15.9 13.4 85 1016.3 5.4 NNW 8.3 0.0 0.0
00:27 15.9 13.4 85 1016.0 5.4 N 8.3 0.0 0.0
00:28 15.9 13.4 85 1016.0 5.4 N 8.3 0.0 0.0
00:29 15.9 13.4 85 1016.2 7.6 NE 8.3 0.0 0.0
00:30 15.9 13.4 85 1016.0 7.6 W 8.3 0.0 0.0
00:31 15.9 13.4 85 1016.0 4.5 NE 8.3 0.0 0.0
00:32 15.9 13.4 85 1015.8 6.9 N 8.3 0.0 0.0
00:33 15.9 13.4 85 1016.2 8.3 NNW 8.3 0.0 0.0
00:34 15.9 13.4 85 1016.2 8.3 NE 8.3 0.0 0.0
00:35 16.0 13.5 85 1016.0 5.4 NE 8.3 0.0 0.0
00:36 16.0 13.5 85 1016.2 3.8 NW 8.3 0.0 0.0
00:37 16.0 13.5 85 1016.2 3.1 E 8.3 0.0 0.0
00:38 16.0 13.5 85 1016.1 8.3 SE 8.3 0.0 0.0
00:39 16.0 13.5 85 1016.3 6.9 SE 8.3 0.0 0.0
00:40 16.0 13.5 85 1016.3 5.4 N 8.3 0.0 0.0
00:41 16.0 13.5 85 1016.0 5.4 N 8.3 0.0 0.0
00:42 16.0 13.5 85 1015.9 4.5 NNW 8.3 0.0 0.0
00:43 16.0 13.5 85 1016.3 4.5 NNW 8.3 0.0 0.0
00:44 16.0 13.5 85 1016.2 5.4 N 8.3 0.0 0.0
00:45 16.0 13.5 85 1016.2 6.9 NNW 8.3 0.0 0.0
00:46 16.0 13.5 85 1016.0 5.4 NE 8.3 0.0 0.0
00:47 16.0 13.5 85 1016.1 5.4 N 8.3 0.0 0.0
00:48 16.0 13.5 85 1016.1 2.2 NNW 8.3 0.0 0.0
00:49 16.0 13.5 85 1016.1 2.2 NNW 6.9 0.0 0.0
00:50 16.0 13.5 85 1016.1 3.8 N 6.9 0.0 0.0
00:51 16.0 13.5 85 1016.2 5.4 N 6.9 0.0 0.0
00:52 16.0 13.5 85 1016.2 4.5 NW 6.9 0.0 0.0
00:53 16.0 13.5 85 1016.1 3.1 N 6.9 0.0 0.0
00:54 16.0 13.5 85 1016.2 6.0 NE 6.9 0.0 0.0
00:55 16.0 13.7 86 1016.2 3.1 NNW 6.9 0.0 0.0
00:56 16.0 13.7 86 1016.1 6.9 NNW 6.9 0.0 0.0
00:57 16.1 13.8 86 1016.0 4.5 N 6.9 0.0 0.0
00:58 16.1 13.8 86 1016.2 4.5 W 6.9 0.0 0.0
00:59 16.1 13.8 86 1016.1 6.0 E 6.9 0.0 0.0
01:00 16.1 13.8 86 1016.2 6.0 NNW 6.9 0.0 0.0
01:01 16.1 13.8 86 1016.1 6.0 NNW 6.9 0.0 0.0
01:02 16.1 13.8 86 1016.2 6.0 NNW 6.9 0.0 0.0
01:03 16.1 13.8 86 1016.2 6.0 NNW 6.9 0.0 0.0
01:04 16.1 13.8 86 1016.1 6.0 NNW 6.9 0.0 0.0
01:05 16.1 13.8 86 1016.1 6.0 NNW 6.9 0.0 0.0
01:06 16.1 13.8 86 1016.1 6.0 NNW 6.9 0.0 0.0
01:07 16.1 13.8 86 1016.1 3.8 NW 6.9 0.0 0.0
01:08 16.1 13.8 86 1016.1 5.4 NNW 6.0 0.0 0.0
01:09 16.1 13.8 86 1016.1 6.0 N 6.0 0.0 0.0
01:10 16.1 13.8 86 1015.9 6.0 E 6.0 0.0 0.0
01:11 16.1 13.8 86 1016.1 8.3 NE 8.3 0.0 0.0
01:12 16.1 13.8 86 1016.2 6.9 NE 8.3 0.0 0.0
01:13 16.1 13.8 86 1016.1 5.4 NE 8.3 0.0 0.0
01:14 16.1 13.8 86 1016.2 3.8 N 8.3 0.0 0.0
01:15 16.1 13.8 86 1016.2 9.2 NNW 9.2 0.0 0.0
01:16 16.2 13.9 86 1016.2 5.4 NNW 9.2 0.0 0.0
01:17 16.2 13.9 86 1016.2 5.4 NNW 9.2 0.0 0.0
01:18 16.2 13.9 86 1016.2 5.4 NE 9.2 0.0 0.0
01:19 16.2 13.9 86 1016.2 7.6 NNW 9.2 0.0 0.0
01:20 16.2 13.9 86 1016.2 7.6 W 9.2 0.0 0.0
01:21 16.2 13.9 86 1016.1 6.0 W 9.2 0.0 0.0
01:22 16.2 13.9 86 1016.2 7.6 NNE 9.2 0.0 0.0
01:23 16.2 13.9 86 1016.2 8.3 SW 9.2 0.0 0.0
01:24 16.2 13.9 86 1016.3 6.0 N 9.2 0.0 0.0
01:25 16.2 13.9 86 1016.1 10.7 N 10.7 0.0 0.0
01:26 16.2 13.9 86 1016.1 6.9 NNW 10.7 0.0 0.0
01:27 16.2 13.9 86 1016.3 3.8 N 10.7 0.0 0.0
01:28 16.2 13.9 86 1016.3 5.4 N 10.7 0.0 0.0
01:29 16.2 13.9 86 1016.3 5.4 NE 10.7 0.0 0.0
01:30 16.2 13.9 86 1016.2 3.8 N 10.7 0.0 0.0
01:31 16.2 13.9 86 1016.2 7.6 N 10.7 0.0 0.0
01:32 16.2 13.9 86 1016.2 7.6 SE 10.7 0.0 0.0
01:33 16.2 13.9 86 1016.2 3.8 NE 10.7 0.0 0.0
01:34 16.2 13.9 86 1016.3 8.3 NNW 10.7 0.0 0.0
01:35 16.2 13.9 86 1016.2 3.8 N 10.7 0.0 0.0
01:36 16.2 13.9 86 1016.1 4.5 NE 8.3 0.0 0.0
01:37 16.2 13.9 86 1016.2 5.4 N 8.3 0.0 0.0
01:38 16.3 14.0 86 1016.0 6.0 NNW 8.3 0.0 0.0
01:39 16.3 14.0 86 1015.9 6.0 NNW 8.3 0.0 0.0
01:40 16.3 14.0 86 1016.2 5.4 N 8.3 0.0 0.0
01:41 16.3 14.0 86 1016.2 5.4 N 8.3 0.0 0.0
01:42 16.3 14.0 86 1016.2 7.6 N 8.3 0.0 0.0
01:43 16.3 14.0 86 1016.4 3.8 NNW 8.3 0.0 0.0
01:44 16.3 14.0 86 1016.3 8.3 NNW 8.3 0.0 0.0
01:45 16.3 14.0 86 1016.3 8.3 NNW 8.3 0.0 0.0
01:46 16.3 14.0 86 1016.3 7.6 NE 8.3 0.0 0.0
01:47 16.3 14.0 86 1016.2 7.6 NNE 8.3 0.0 0.0
01:48 16.3 14.0 86 1016.3 7.6 NNW 8.3 0.0 0.0
01:49 16.3 14.0 86 1016.3 7.6 NE 8.3 0.0 0.0
01:50 16.3 14.0 86 1016.0 3.8 NE 8.3 0.0 0.0
01:51 16.3 14.0 86 1016.3 5.4 NNW 8.3 0.0 0.0
01:52 16.3 14.0 86 1016.2 7.6 NNW 8.3 0.0 0.0
01:53 16.3 14.0 86 1016.1 4.5 NE 8.3 0.0 0.0
01:54 16.3 14.0 86 1016.1 7.6 NNW 8.3 0.0 0.0
01:55 16.3 14.0 86 1016.1 6.9 E 8.3 0.0 0.0
01:56 16.3 14.0 86 1016.0 9.8 E 9.8 0.0 0.0
01:57 16.3 14.0 86 1016.1 4.5 NE 9.8 0.0 0.0
01:58 16.3 14.0 86 1016.0 6.9 E 9.8 0.0 0.0
01:59 16.3 14.0 86 1016.2 4.5 E 9.8 0.0 0.0
02:00 16.3 14.0 86 1016.2 6.9 SE 9.8 0.0 0.0
02:01 16.3 14.0 86 1016.0 6.0 SW 9.8 0.0 0.0
02:02 16.3 14.0 86 1016.2 3.8 N 9.8 0.0 0.0
02:03 16.3 14.0 86 1015.9 6.0 NE 9.8 0.0 0.0
02:04 16.3 14.0 86 1016.3 4.5 NNW 9.8 0.0 0.0
02:05 16.3 14.0 86 1016.1 9.8 N 9.8 0.0 0.0
02:06 16.3 14.0 86 1016.0 9.8 E 9.8 0.0 0.0
02:07 16.3 14.0 86 1016.1 6.0 NE 9.8 0.0 0.0
02:08 16.3 14.0 86 1016.1 8.3 NE 9.8 0.0 0.0
02:09 16.3 14.0 86 1016.0 8.3 NE 9.8 0.0 0.0
02:10 16.3 14.0 86 1015.9 6.9 W 9.8 0.0 0.0
02:11 16.3 14.0 86 1016.2 5.4 W 9.8 0.0 0.0
02:12 16.3 14.0 86 1016.0 5.4 NNW 9.8 0.0 0.0
02:13 16.3 14.0 86 1016.0 5.4 NNW 9.8 0.0 0.0
02:14 16.3 14.0 86 1016.2 7.6 NE 9.8 0.0 0.0
02:15 16.3 14.0 86 1015.8 5.4 W 9.8 0.0 0.0
02:16 16.3 14.0 86 1015.8 5.4 N 8.3 0.0 0.0
02:17 16.3 14.0 86 1016.0 5.4 N 8.3 0.0 0.0
02:18 16.3 14.0 86 1015.9 8.3 N 8.3 0.0 0.0
02:19 16.3 14.0 86 1015.9 6.9 NNW 8.3 0.0 0.0
02:20 16.3 14.0 86 1015.9 6.9 N 8.3 0.0 0.0
02:21 16.3 14.0 86 1015.6 6.0 NNE 9.2 0.0 0.0
02:22 16.3 14.0 86 1015.8 8.3 NNW 9.2 0.0 0.0
02:23 16.3 14.0 86 1015.8 7.6 NNW 9.2 0.0 0.0
02:24 16.3 14.0 86 1015.7 8.3 NE 9.2 0.0 0.0
02:25 16.3 14.0 86 1015.6 13.6 NNW 13.6 0.0 0.0
02:26 16.3 14.0 86 1015.6 13.6 NE 13.6 0.0 0.0
02:27 16.3 14.0 86 1015.6 9.2 N 13.6 0.0 0.0
02:28 16.3 14.0 86 1015.7 9.2 NNW 13.6 0.0 0.0
02:29 16.3 14.0 86 1015.7 9.2 NNW 13.6 0.0 0.0
02:30 16.3 14.0 86 1015.7 10.7 NNW 13.6 0.0 0.0
02:31 16.3 14.0 86 1015.6 7.6 N 13.6 0.0 0.0
02:32 16.2 13.9 86 1015.7 8.3 N 13.6 0.0 0.0
02:33 16.2 13.9 86 1015.6 8.3 NE 13.6 0.0 0.0
02:34 16.2 13.9 86 1015.9 6.9 NW 13.6 0.0 0.0
02:35 16.2 13.9 86 1015.7 9.8 W 13.6 0.0 0.0
02:36 16.3 14.0 86 1015.5 12.1 NNW 13.6 0.0 0.0
02:37 16.3 14.0 86 1015.6 12.1 NE 12.1 0.0 0.0
02:38 16.3 14.0 86 1015.6 6.0 NNW 12.1 0.0 0.0
02:39 16.2 13.9 86 1015.5 6.0 E 12.1 0.0 0.0
02:40 16.2 13.9 86 1015.7 11.4 NE 12.1 0.0 0.0
02:41 16.2 13.9 86 1015.7 11.4 NE 12.1 0.0 0.0
02:42 16.2 13.9 86 1015.6 11.4 N 12.1 0.0 0.0
02:43 16.2 13.9 86 1015.3 4.5 NE 12.1 0.0 0.0
02:44 16.2 13.9 86 1015.6 7.6 N 12.1 0.0 0.0
02:45 16.2 13.9 86 1015.4 8.3 E 12.1 0.0 0.0
02:46 16.2 13.9 86 1015.5 8.3 NE 12.1 0.0 0.0
02:47 16.2 13.9 86 1015.4 9.2 NE 12.1 0.0 0.0
02:48 16.2 13.9 86 1015.6 6.0 NNW 11.4 0.0 0.0
02:49 16.2 13.9 86 1015.5 6.9 N 11.4 0.0 0.0
02:50 16.2 13.9 86 1015.5 5.4 NE 11.4 0.0 0.0
02:51 16.2 13.9 86 1015.5 5.4 NE 11.4 0.0 0.0
02:52 16.2 13.9 86 1015.3 6.9 NNW 9.2 0.0 0.0
02:53 16.2 13.9 86 1015.6 6.9 NE 9.2 0.0 0.0
02:54 16.2 13.9 86 1015.5 13.0 NNW 13.0 0.0 0.0
02:55 16.2 13.9 86 1015.5 6.9 N 13.0 0.0 0.0
02:56 16.2 13.9 86 1015.4 9.2 NE 13.0 0.0 0.0
02:57 16.2 13.9 86 1015.4 6.0 E 13.0 0.0 0.0
02:58 16.2 13.9 86 1015.3 6.9 NE 13.0 0.0 0.0
02:59 16.1 13.8 86 1015.3 3.8 NE 13.0 0.0 0.0
03:00 16.1 13.8 86 1015.3 3.8 NNW 13.0 0.0 0.0
03:01 16.1 13.8 86 1015.1 3.8 NNW 13.0 0.0 0.0
03:02 16.1 13.8 86 1015.3 3.8 NNW 13.0 0.0 0.0
03:03 16.1 13.8 86 1015.2 3.8 NNW 13.0 0.0 0.0
03:04 16.1 13.8 86 1015.4 3.8 NNW 13.0 0.0 0.0
03:05 16.1 13.8 86 1015.3 3.8 NNW 9.2 0.0 0.0
03:06 16.1 13.8 86 1015.3 3.8 NNW 6.9 0.0 0.0
03:07 16.1 13.8 86 1015.6 3.8 W 6.9 0.0 0.0
03:08 16.1 13.8 86 1015.5 4.5 NNW 7.6 0.0 0.0
03:09 16.1 13.8 86 1015.5 5.4 NNW 7.6 0.0 0.0
03:10 16.1 13.8 86 1015.5 5.4 NNW 7.6 0.0 0.0
03:11 16.1 13.8 86 1015.6 6.9 NE 7.6 0.0 0.0
03:12 16.1 13.8 86 1015.6 6.9 N 7.6 0.0 0.0
03:13 16.1 13.8 86 1015.6 3.1 NE 7.6 0.0 0.0
03:14 16.1 13.8 86 1015.6 3.8 NE 7.6 0.0 0.0
03:15 16.1 13.8 86 1015.4 5.4 NNW 7.6 0.0 0.0
03:16 16.1 13.8 86 1015.4 5.4 NE 7.6 0.0 0.0
03:17 16.1 13.8 86 1015.3 5.4 NNW 7.6 0.0 0.0
03:18 16.1 13.8 86 1015.6 6.0 N 6.9 0.0 0.0
03:19 16.1 13.8 86 1015.5 10.7 NNW 10.7 0.0 0.0
03:20 16.1 13.8 86 1015.3 10.7 NE 10.7 0.0 0.0
03:21 16.1 13.8 86 1015.3 7.6 NE 10.7 0.0 0.0
03:22 16.1 13.8 86 1015.2 6.9 N 10.7 0.0 0.0
03:23 16.1 13.8 86 1015.2 6.9 N 10.7 0.0 0.0
03:24 16.1 13.8 86 1015.4 3.1 N 10.7 0.0 0.0
03:25 16.1 13.8 86 1015.2 3.8 NW 10.7 0.0 0.0
03:26 16.1 13.8 86 1015.4 6.9 W 10.7 0.0 0.0
03:27 16.1 13.8 86 1015.5 3.8 NE 10.7 0.0 0.0
03:28 16.1 13.8 86 1015.3 6.9 W 10.7 0.0 0.0
03:29 16.1 13.8 86 1015.4 3.8 NNW 10.7 0.0 0.0
03:30 16.1 13.8 86 1015.4 6.0 E 10.7 0.0 0.0
03:31 16.1 13.8 86 1015.6 4.5 NNW 7.6 0.0 0.0
03:32 16.1 13.8 86 1015.3 5.4 NNW 6.9 0.0 0.0
03:33 16.1 13.8 86 1015.3 3.8 NE 6.9 0.0 0.0
03:34 16.1 13.8 86 1015.5 6.9 N 6.9 0.0 0.0
03:35 16.1 13.8 86 1015.4 6.0 NE 6.9 0.0 0.0
03:36 16.1 13.8 86 1015.5 9.8 NE 9.8 0.0 0.0
03:37 16.1 13.8 86 1015.4 9.8 N 9.8 0.0 0.0
03:38 16.1 13.8 86 1015.4 9.8 N 9.8 0.0 0.0
03:39 16.1 13.8 86 1015.3 7.6 NE 9.8 0.0 0.0
03:40 16.1 13.8 86 1015.2 7.6 NNW 9.8 0.0 0.0
03:41 16.1 13.8 86 1015.0 6.9 N 9.8 0.0 0.0
03:42 16.1 13.8 86 1015.1 6.9 N 9.8 0.0 0.0
03:43 16.1 13.8 86 1015.3 7.6 NNW 9.8 0.0 0.0
03:44 16.1 13.8 86 1015.3 3.8 NNW 9.8 0.0 0.0
03:45 16.1 13.8 86 1015.2 3.8 NNW 9.8 0.0 0.0
03:46 16.1 13.8 86 1015.3 7.6 N 9.8 0.0 0.0
03:47 16.1 13.8 86 1015.2 13.0 N 13.0 0.0 0.0
03:48 16.1 13.8 86 1015.2 9.2 W 13.0 0.0 0.0
03:49 16.1 13.8 86 1015.1 7.6 N 13.0 0.0 0.0
03:50 16.2 13.9 86 1015.2 8.3 NE 13.0 0.0 0.0
03:51 16.2 13.9 86 1015.1 10.7 W 13.0 0.0 0.0
03:52 16.2 13.9 86 1015.2 11.4 NNW 13.0 0.0 0.0
03:53 16.2 13.9 86 1015.2 12.1 E 13.0 0.0 0.0
03:54 16.2 13.9 86 1015.0 8.3 N 13.0 0.0 0.0
03:55 16.2 13.9 86 1015.1 8.3 NNW 13.0 0.0 0.0
03:56 16.2 13.9 86 1015.1 7.6 NNW 13.0 0.0 0.0
03:57 16.2 13.9 86 1015.4 9.2 N 13.0 0.0 0.0
03:58 16.2 13.9 86 1015.2 9.8 NE 13.0 0.0 0.0
03:59 16.2 13.9 86 1015.4 7.6 NE 15.2 0.0 0.0
04:00 16.2 13.9 86 1015.2 9.2 NNW 15.2 0.0 0.0
04:01 16.2 13.9 86 1015.1 3.8 NE 15.2 0.0 0.0
04:02 16.2 13.9 86 1015.3 8.3 NE 15.2 0.0 0.0
04:03 16.2 13.9 86 1015.1 8.3 NNW 15.2 0.0 0.0
04:04 16.2 13.9 86 1015.2 9.8 N 15.2 0.0 0.0
04:05 16.2 13.9 86 1015.4 9.8 N 15.2 0.0 0.0
04:06 16.2 13.9 86 1015.4 9.8 N 15.2 0.0 0.0
04:07 16.2 13.9 86 1015.1 6.0 NE 15.2 0.0 0.0
04:08 16.2 13.9 86 1015.1 7.6 N 15.2 0.0 0.0
04:09 16.2 13.9 86 1015.1 7.6 N 9.8 0.0 0.0
04:10 16.2 13.9 86 1014.9 6.0 N 9.8 0.0 0.0
04:11 16.2 13.9 86 1015.0 8.3 NE 9.8 0.0 0.0
04:12 16.2 13.9 86 1014.7 9.8 NE 9.8 0.0 0.0
04:13 16.2 13.9 86 1015.1 12.1 N 12.1 0.0 0.0
04:14 16.2 13.9 86 1015.0 9.2 N 12.1 0.0 0.0
04:15 16.2 13.9 86 1014.9 9.8 W 12.1 0.0 0.0
04:16 16.2 13.9 86 1014.8 9.8 N 12.1 0.0 0.0
04:17 16.2 13.9 86 1014.8 9.2 N 12.1 0.0 0.0
04:18 16.2 13.9 86 1015.0 6.0 N 12.1 0.0 0.0
04:19 16.2 13.9 86 1015.0 8.3 NNW 12.1 0.0 0.0
04:20 16.2 14.0 87 1015.0 8.3 N 12.1 0.0 0.0
04:21 16.2 14.0 87 1015.0 8.3 N 12.1 0.0 0.0
04:22 16.2 14.0 87 1014.9 12.1 NE 12.1 0.0 0.0
04:23 16.2 14.0 87 1015.1 7.6 NE 12.1 0.0 0.0
04:24 16.2 14.0 87 1014.7 9.2 NNW 12.1 0.0 0.0
04:25 16.2 14.0 87 1014.9 8.3 W 12.1 0.0 0.0
04:26 16.3 14.1 87 1015.0 6.0 N 12.1 0.0 0.0
04:27 16.3 14.1 87 1014.7 8.3 NNE 12.1 0.0 0.0
04:28 16.3 14.1 87 1014.7 10.7 NNW 12.1 0.0 0.0
04:29 16.3 14.1 87 1014.7 10.7 NNW 12.1 0.0 0.0
04:30 16.3 14.1 87 1014.6 10.7 NNW 12.1 0.0 0.0
04:31 16.3 14.1 87 1014.7 10.7 NNW 12.1 0.0 0.0
04:32 16.3 14.1 87 1014.4 12.1 W 12.1 0.0 0.0
04:33 16.3 14.1 87 1014.5 10.7 NNW 12.1 0.0 0.0
04:34 16.3 14.1 87 1014.7 11.4 NNW 12.1 0.0 0.0
04:35 16.3 14.1 87 1014.5 7.6 N 12.1 0.0 0.0
04:36 16.3 14.1 87 1014.8 5.4 NE 12.1 0.0 0.0
04:37 16.3 14.1 87 1014.7 11.4 N 12.1 0.0 0.0
04:38 16.3 14.1 87 1014.6 8.3 N 12.1 0.0 0.0
04:39 16.3 14.1 87 1014.3 7.6 NW 12.1 0.0 0.0
04:40 16.3 14.1 87 1014.6 6.9 S 12.1 0.0 0.0
04:41 16.3 14.1 87 1014.3 10.7 NNW 12.1 0.0 0.0
04:42 16.3 14.1 87 1014.2 9.2 NE 12.1 0.0 0.0
04:43 16.3 14.1 87 1014.2 8.3 SW 11.4 0.0 0.0
04:44 16.3 14.1 87 1014.1 15.2 NNW 15.2 0.0 0.0
04:45 16.3 14.1 87 1014.1 13.0 N 15.2 0.0 0.0
04:46 16.3 14.1 87 1014.1 13.6 N 15.2 0.0 0.0
04:47 16.3 14.1 87 1014.1 8.3 NNW 15.2 0.0 0.0
04:48 16.3 14.1 87 1014.1 10.7 NE 15.2 0.0 0.0
04:49 16.3 14.1 87 1014.1 10.7 NE 15.2 0.0 0.0
04:50 16.3 14.1 87 1014.1 11.4 NNW 15.2 0.0 0.0
04:51 16.3 14.1 87 1014.0 10.7 NE 15.2 0.0 0.0
04:52 16.3 14.1 87 1014.1 5.4 W 15.2 0.0 0.0
04:53 16.3 14.1 87 1014.3 6.0 SW 15.2 0.0 0.0
04:54 16.3 14.1 87 1014.0 8.3 NE 15.2 0.0 0.0
04:55 16.3 14.1 87 1014.0 11.4 SW 13.6 0.0 0.0
04:56 16.2 14.0 87 1013.8 9.2 N 13.6 0.0 0.0
04:57 16.2 14.0 87 1013.9 8.3 NE 11.4 0.0 0.0
04:58 16.2 14.0 87 1013.8 8.3 NE 11.4 0.0 0.0
04:59 16.2 14.0 87 1013.9 8.3 NNW 11.4 0.0 0.0
05:00 16.2 14.0 87 1013.9 9.8 NNE 11.4 0.0 0.0
05:01 16.2 14.0 87 1013.8 9.8 NNE 11.4 0.0 0.0
05:02 16.2 14.0 87 1013.6 9.8 NNE 11.4 0.0 0.0
05:03 16.2 14.0 87 1013.7 9.8 NNE 11.4 0.0 0.0
05:04 16.2 14.0 87 1013.8 9.8 NNE 11.4 0.0 0.0
05:05 16.2 14.0 87 1013.7 9.8 NNE 11.4 0.0 0.0
05:06 16.2 14.0 87 1013.7 9.8 NNE 11.4 0.0 0.0
05:07 16.2 14.0 87 1013.8 7.6 E 9.8 0.0 0.0
05:08 16.2 14.0 87 1013.8 7.6 NE 9.8 0.0 0.0
05:09 16.2 14.0 87 1013.7 8.3 NW 9.8 0.0 0.0
05:10 16.2 14.0 87 1013.8 10.7 NW 10.7 0.0 0.0
05:11 16.2 14.0 87 1013.7 9.2 NE 10.7 0.0 0.0
05:12 16.2 14.0 87 1013.6 12.1 N 12.1 0.0 0.0
05:13 16.2 14.0 87 1014.0 12.1 NE 12.1 0.0 0.0
05:14 16.2 14.0 87 1013.8 9.2 W 12.1 0.0 0.0
05:15 16.2 14.0 87 1013.6 9.8 NE 12.1 0.0 0.0
05:16 16.2 14.0 87 1013.9 6.0 N 12.1 0.0 0.0
05:17 16.2 14.0 87 1013.9 6.0 N 12.1 0.0 0.0
05:18 16.2 14.0 87 1013.8 8.3 N 12.1 0.0 0.0
05:19 16.2 14.0 87 1013.7 6.0 NE 12.1 0.0 0.0
05:20 16.2 14.0 87 1013.9 6.9 NE 12.1 0.0 0.0
05:21 16.2 14.0 87 1013.8 6.9 N 12.1 0.0 0.0
05:22 16.2 14.0 87 1013.7 7.6 NNW 12.1 0.0 0.0
05:23 16.2 14.0 87 1013.9 6.9 NE 12.1 0.0 0.0
05:24 16.2 14.0 87 1013.7 4.5 E 9.8 0.0 0.0
05:25 16.1 13.9 87 1013.9 3.1 NE 9.8 0.0 0.0
05:26 16.1 13.9 87 1013.8 3.1 N 8.3 0.0 0.0
05:27 16.1 13.9 87 1014.0 6.0 N 8.3 0.0 0.0
05:28 16.1 13.9 87 1014.0 4.5 NNW 8.3 0.0 0.0
05:29 16.1 13.9 87 1014.0 4.5 NE 8.3 0.0 0.0
05:30 16.1 13.9 87 1014.0 5.4 E 8.3 0.0 0.0
05:31 16.1 13.9 87 1014.1 7.6 E 8.3 0.0 0.0
05:32 16.1 13.9 87 1014.1 6.9 NE 8.3 0.0 0.0
05:33 16.1 13.9 87 1014.0 9.2 N 9.2 0.0 0.0
05:34 16.1 13.9 87 1014.0 5.4 S 9.2 0.0 0.0
05:35 16.1 13.9 87 1014.2 6.0 NE 9.2 0.0 0.0
05:36 16.1 13.9 87 1014.0 4.5 N 9.2 0.0 0.0
05:37 16.1 13.9 87 1014.1 7.6 N 9.2 0.0 0.0
05:38 16.1 13.9 87 1014.2 6.0 NE 9.2 0.0 0.0
05:39 16.0 13.8 87 1014.0 6.9 N 9.2 0.0 0.0
05:40 16.0 13.8 87 1014.1 9.2 N 9.2 0.0 0.0
05:41 16.0 13.8 87 1014.1 7.6 N 9.2 0.0 0.0
05:42 16.0 13.8 87 1014.1 6.0 N 9.2 0.0 0.0
05:43 16.0 13.8 87 1014.2 6.0 W 9.2 0.0 0.0
05:44 16.0 13.8 87 1014.3 4.5 NE 9.2 0.0 0.0
05:45 16.0 13.8 87 1014.3 4.5 NE 9.2 0.0 0.0
05:46 16.0 13.8 87 1014.1 6.9 N 9.2 0.0 0.0
05:47 16.0 13.8 87 1014.2 6.9 N 9.2 0.0 0.0
05:48 16.0 13.8 87 1014.3 6.0 NE 9.2 0.0 0.0
05:49 16.0 13.8 87 1014.3 7.6 NE 9.2 0.0 0.0
05:50 16.0 13.8 87 1014.1 5.4 NE 9.2 0.0 0.0
05:51 16.0 13.8 87 1014.1 5.4 NNW 9.2 0.0 0.0
05:52 16.0 13.8 87 1014.3 9.2 NNW 9.2 0.0 0.0
05:53 16.0 13.8 87 1014.1 5.4 N 9.2 0.0 0.0
05:54 16.0 13.8 87 1014.2 4.5 W 9.2 0.0 0.0
05:55 16.0 13.8 87 1014.2 5.4 NE 9.2 0.0 0.0
05:56 16.0 13.8 87 1014.3 6.9 NW 9.2 0.0 0.0
05:57 16.0 13.8 87 1014.3 7.6 N 9.2 0.0 0.0
05:58 16.0 13.8 87 1014.3 9.2 N 9.2 0.0 0.0
05:59 16.0 13.8 87 1014.3 9.8 NNW 9.8 0.0 0.0
06:00 16.0 13.8 87 1014.3 9.8 N 9.8 0.0 0.0
06:01 16.0 13.8 87 1014.3 7.6 N 9.8 0.0 0.0
06:02 16.0 13.8 87 1014.2 8.3 NE 9.8 0.0 0.0
06:03 16.0 13.8 87 1014.3 9.2 NE 9.8 0.0 0.0
06:04 16.0 13.8 87 1014.2 6.0 N 9.8 0.0 0.0
06:05 16.0 13.8 87 1014.2 6.0 NNW 9.8 0.0 0.0
06:06 16.0 13.8 87 1014.4 3.1 N 9.8 0.0 0.0
06:07 16.0 13.8 87 1014.5 3.8 NW 9.8 0.0 0.0
06:08 16.1 13.9 87 1014.5 4.5 E 9.8 0.0 0.0
06:09 16.1 13.9 87 1014.4 6.9 S 9.8 0.0 0.0
06:10 16.1 13.9 87 1014.4 4.5 NW 9.2 0.0 0.0
06:11 16.1 13.9 87 1014.5 4.5 W 9.2 0.0 0.0
06:12 16.1 13.9 87 1014.3 5.4 NNW 9.2 0.0 0.0
06:13 16.1 13.9 87 1014.3 5.4 NNW 9.2 0.0 0.0
06:14 16.1 13.9 87 1014.5 5.4 W 6.9 0.0 0.0
06:15 16.1 13.9 87 1014.5 6.9 E 6.9 0.0 0.0
06:16 16.1 13.9 87 1014.4 5.4 E 6.9 0.0 0.0
06:17 16.1 13.9 87 1014.3 4.5 N 6.9 0.0 0.0
06:18 16.1 13.9 87 1014.5 4.5 E 6.9 0.0 0.0
06:19 16.1 13.9 87 1014.6 6.0 NNE 6.9 0.0 0.0
06:20 16.1 13.9 87 1014.4 5.4 NE 7.6 0.0 0.0
06:21 16.1 13.9 87 1014.4 5.4 N 7.6 0.0 0.0
06:22 16.1 13.9 87 1014.4 7.6 NNW 7.6 0.0 0.0
06:23 16.1 13.9 87 1014.4 5.4 NNW 7.6 0.0 0.0
06:24 16.1 13.9 87 1014.4 5.4 NE 7.6 0.0 0.0
06:25 16.1 13.9 87 1014.4 6.0 NE 7.6 0.0 0.0
06:26 16.1 13.9 87 1014.2 4.5 E 7.6 0.0 0.0
06:27 16.1 13.9 87 1014.4 5.4 NNW 7.6 0.0 0.0
06:28 16.1 13.9 87 1014.4 7.6 NE 7.6 0.0 0.0
06:29 16.1 13.9 87 1014.3 6.0 E 7.6 0.0 0.0
06:30 16.1 13.9 87 1014.5 3.1 W 7.6 0.0 0.0
06:31 16.1 13.9 87 1013.9 7.6 NNW 7.6 0.0 0.0
06:32 16.1 13.9 87 1014.1 7.6 NE 7.6 0.0 0.0
06:33 16.1 13.9 87 1014.3 9.2 NE 9.2 0.0 0.0
06:34 16.1 13.9 87 1014.3 6.9 SE 9.2 0.0 0.0
06:35 16.1 13.9 87 1014.3 4.5 NNW 9.2 0.0 0.0
06:36 16.1 13.9 87 1014.4 6.0 W 9.2 0.0 0.0
06:37 16.1 13.9 87 1014.1 4.5 N 9.2 0.0 0.0
06:38 16.1 13.9 87 1014.2 6.9 NNW 9.2 0.0 0.0
06:39 16.1 13.9 87 1014.3 8.3 N 9.2 0.0 0.0
06:40 16.1 13.9 87 1014.2 11.4 NNW 11.4 0.0 0.0
06:41 16.1 13.9 87 1014.2 11.4 NNW 11.4 0.0 0.0
06:42 16.1 13.9 87 1014.2 6.0 N 11.4 0.0 0.0
06:43 16.2 14.0 87 1014.4 6.0 E 11.4 0.0 0.0
06:44 16.2 14.0 87 1014.4 8.3 N 11.4 0.0 0.0
06:45 16.2 14.0 87 1014.4 6.0 NE 11.4 0.0 0.0
06:46 16.2 14.0 87 1014.3 8.3 N 11.4 0.0 0.0
06:47 16.2 14.0 87 1014.3 6.9 NW 11.4 0.0 0.0
06:48 16.2 14.0 87 1014.5 5.4 W 11.4 0.0 0.0
06:49 16.2 14.0 87 1014.5 5.4 NNW 11.4 0.0 0.0
06:50 16.2 14.0 87 1014.2 8.3 NNW 11.4 0.0 0.0
06:51 16.2 14.0 87 1014.4 5.4 E 8.3 0.0 0.0
06:52 16.2 14.0 87 1014.3 5.4 NNW 8.3 0.0 0.0
06:53 16.2 14.0 87 1014.4 5.4 N 8.3 0.0 0.0
06:54 16.2 14.0 87 1014.6 6.0 NNW 8.3 0.0 0.0
06:55 16.2 14.0 87 1014.6 6.0 NNW 8.3 0.0 0.0
06:56 16.2 14.0 87 1014.3 5.4 ENE 8.3 0.0 0.0
06:57 16.2 14.0 87 1014.4 5.4 N 8.3 0.0 0.0
06:58 16.2 14.0 87 1014.5 5.4 NNW 8.3 0.0 0.0
06:59 16.3 14.1 87 1014.4 4.5 W 8.3 0.0 0.0
07:00 16.3 14.1 87 1014.4 4.5 N 8.3 0.0 0.0
07:01 16.3 14.1 87 1014.6 4.5 N 6.0 0.0 0.0
07:02 16.3 14.1 87 1014.5 4.5 N 6.0 0.0 0.0
07:03 16.3 14.1 87 1014.6 4.5 N 6.0 0.0 0.0
07:04 16.3 14.1 87 1014.5 4.5 N 6.0 0.0 0.0
07:05 16.3 14.1 87 1014.6 9.2 N 9.2 0.0 0.0
07:06 16.3 14.1 87 1014.6 5.4 N 9.2 0.0 0.0
07:07 16.3 14.1 87 1014.7 5.4 W 9.2 0.0 0.0
07:08 16.3 14.1 87 1014.4 6.9 W 9.2 0.0 0.0
07:09 16.3 14.1 87 1014.4 6.9 W 9.2 0.0 0.0
07:10 16.3 14.1 87 1014.5 5.4 NNW 9.2 0.0 0.0
07:11 16.3 14.1 87 1014.6 4.5 NW 9.2 0.0 0.0
07:12 16.3 14.1 87 1014.7 4.5 NE 9.2 0.0 0.0
07:13 16.4 14.2 87 1014.5 10.7 NE 10.7 0.0 0.0
07:14 16.4 14.2 87 1014.6 5.4 NE 10.7 0.0 0.0
07:15 16.4 14.2 87 1014.7 9.8 N 10.7 0.0 0.0
07:16 16.4 14.2 87 1014.7 6.0 NNW 10.7 0.0 0.0
07:17 16.4 14.2 87 1014.9 6.0 N 10.7 0.0 0.0
07:18 16.4 14.2 87 1014.6 7.6 SW 10.7 0.0 0.0
07:19 16.4 14.2 87 1014.7 7.6 SW 10.7 0.0 0.0
07:20 16.4 14.2 87 1014.6 6.0 NE 10.7 0.0 0.0
07:21 16.4 14.2 87 1014.4 6.0 N 10.7 0.0 0.0
07:22 16.4 14.2 87 1014.5 6.0 NW 10.7 0.0 0.0
07:23 16.5 14.3 87 1014.5 6.9 NE 10.7 0.0 0.0
07:24 16.5 14.3 87 1014.7 5.4 W 9.8 0.0 0.0
07:25 16.5 14.3 87 1014.7 6.0 NE 9.8 0.0 0.0
07:26 16.5 14.3 87 1014.6 9.8 NNW 9.8 0.0 0.0
07:27 16.5 14.3 87 1014.7 5.4 N 9.8 0.0 0.0
07:28 16.5 14.3 87 1014.7 9.2 NE 9.8 0.0 0.0
07:29 16.5 14.3 87 1014.8 5.4 NNW 9.8 0.0 0.0
07:30 16.5 14.3 87 1014.7 9.8 N 9.8 0.0 0.0
07:31 16.5 14.3 87 1014.7 6.9 ESE 9.8 0.0 0.0
07:32 16.5 14.3 87 1014.8 8.3 W 9.8 0.0 0.0
07:33 16.6 14.4 87 1014.8 8.3 NNW 9.8 0.0 0.0
07:34 16.6 14.4 87 1014.6 7.6 W 9.8 0.0 0.0
07:35 16.6 14.4 87 1014.8 7.6 NE 9.8 0.0 0.0
07:36 16.6 14.4 87 1014.7 6.0 W 9.8 0.0 0.0
07:37 16.6 14.4 87 1014.7 6.0 W 9.8 0.0 0.0
07:38 16.6 14.4 87 1014.9 9.2 NNW 9.8 0.0 0.0
07:39 16.6 14.4 87 1014.7 7.6 N 9.8 0.0 0.0
07:40 16.6 14.4 87 1014.9 7.6 NNW 9.8 0.0 0.0
07:41 16.6 14.4 87 1014.6 6.0 E 9.8 0.0 0.0
07:42 16.6 14.4 87 1014.5 7.6 NNW 9.8 0.0 0.0
07:43 16.6 14.4 87 1014.6 9.8 NNW 9.8 0.0 0.0
07:44 16.7 14.5 87 1014.6 10.7 NE 10.7 0.0 0.0
07:45 16.7 14.5 87 1014.7 9.2 NNW 10.7 0.0 0.0
07:46 16.7 14.5 87 1014.6 6.0 N 10.7 0.0 0.0
07:47 16.7 14.5 87 1014.7 13.0 N 13.0 0.0 0.0
07:48 16.7 14.5 87 1014.6 4.5 NE 13.0 0.0 0.0
07:49 16.8 14.6 87 1014.7 8.3 N 13.0 0.0 0.0
07:50 16.8 14.6 87 1014.7 6.9 N 13.0 0.0 0.0
07:51 16.8 14.6 87 1014.6 6.9 NNW 13.0 0.0 0.0
07:52 16.8 14.6 87 1014.7 9.2 NNW 13.0 0.0 0.0
07:53 16.8 14.6 87 1014.8 9.2 N 13.0 0.0 0.0
07:54 16.8 14.6 87 1014.8 10.7 N 13.0 0.0 0.0
07:55 16.9 14.7 87 1014.8 9.2 NW 13.0 0.0 0.0
07:56 16.9 14.7 87 1014.9 9.8 NNW 13.0 0.0 0.0
07:57 16.9 14.7 87 1014.7 9.8 E 13.0 0.0 0.0
07:58 16.9 14.7 87 1014.8 12.1 NNW 12.1 0.0 0.0
07:59 17.0 14.8 87 1014.6 12.1 NNW 12.1 0.0 0.0
08:00 17.0 14.8 87 1014.5 9.2 N 12.1 0.0 0.0
08:01 17.0 14.8 87 1014.4 9.2 N 12.1 0.0 0.0
08:02 17.0 14.8 87 1014.7 9.2 N 12.1 0.0 0.0
08:03 17.0 14.8 87 1014.3 9.2 N 12.1 0.0 0.0
08:04 17.0 14.8 87 1014.4 9.2 N 12.1 0.0 0.0
08:05 17.0 14.8 87 1014.4 9.2 N 12.1 0.0 0.0
08:06 17.1 14.9 87 1014.5 13.6 NNW 13.6 0.0 0.0
08:07 17.2 15.0 87 1014.4 7.6 NNW 13.6 0.0 0.0
08:08 17.2 15.0 87 1014.3 8.3 N 13.6 0.0 0.0
08:09 17.2 15.0 87 1014.5 9.2 E 13.6 0.0 0.0
08:10 17.2 15.0 87 1014.6 9.2 NE 13.6 0.0 0.0
08:11 17.3 14.9 86 1014.5 8.3 NE 13.6 0.0 0.0
08:12 17.3 14.9 86 1014.5 11.4 NNW 13.6 0.0 0.0
08:13 17.4 15.0 86 1014.3 6.0 SW 13.6 0.0 0.0
08:14 17.4 15.0 86 1014.4 9.8 NNW 13.6 0.0 0.0
08:15 17.4 15.0 86 1014.4 11.4 NNW 13.6 0.0 0.0
08:16 17.5 14.6 83 1014.4 8.3 NNW 11.4 0.0 0.0
08:17 17.5 14.6 83 1014.4 7.6 E 11.4 0.0 0.0
08:18 17.5 14.6 83 1014.5 7.6 NW 11.4 0.0 0.0
08:19 17.5 14.6 83 1014.4 12.1 N 12.1 0.0 0.0
08:20 17.6 14.7 83 1014.5 12.1 NW 12.1 0.0 0.0
08:21 17.6 14.7 83 1014.5 6.9 N 12.1 0.0 0.0
08:22 17.6 14.7 83 1014.6 7.6 N 12.1 0.0 0.0
08:23 17.7 14.8 83 1014.5 11.4 NE 12.1 0.0 0.0
08:24 17.7 14.8 83 1014.5 12.1 NE 12.1 0.0 0.0
08:25 17.7 14.8 83 1014.4 10.7 N 12.1 0.0 0.0
08:26 17.7 14.8 83 1014.3 7.6 N 12.1 0.0 0.0
08:27 17.8 14.9 83 1014.4 8.3 NW 12.1 0.0 0.0
08:28 17.9 15.0 83 1014.4 5.4 NNW 12.1 0.0 0.0
08:29 17.9 15.0 83 1014.3 9.2 NE 12.1 0.0 0.0
08:30 17.9 15.0 83 1014.6 9.2 NNW 12.1 0.0 0.0
08:31 18.0 15.1 83 1014.5 12.1 NNW 12.1 0.0 0.0
08:32 18.0 14.9 82 1014.6 9.8 NE 12.1 0.0 0.0
08:33 18.0 14.9 82 1014.6 9.8 NE 12.1 0.0 0.0
08:34 18.0 14.9 82 1014.5 9.8 NE 12.1 0.0 0.0
08:35 18.0 14.9 82 1014.5 9.8 N 12.1 0.0 0.0
08:36 18.1 15.0 82 1014.6 10.7 E 12.1 0.0 0.0
08:37 18.1 15.0 82 1014.6 9.8 NNW 12.1 0.0 0.0
08:38 18.1 15.0 82 1014.2 11.4 NNW 12.1 0.0 0.0
08:39 18.1 14.8 81 1014.6 6.0 N 12.1 0.0 0.0
08:40 18.1 14.8 81 1014.6 6.9 NNW 12.1 0.0 0.0
08:41 18.1 14.8 81 1014.5 4.5 NNW 12.1 0.0 0.0
08:42 18.1 14.8 81 1014.6 8.3 NNW 11.4 0.0 0.0
08:43 18.2 14.9 81 1014.7 8.3 N 11.4 0.0 0.0
08:44 18.2 14.9 81 1014.5 9.2 NNW 11.4 0.0 0.0
08:45 18.2 14.9 81 1014.4 6.9 N 11.4 0.0 0.0
08:46 18.2 14.9 81 1014.6 6.9 NE 11.4 0.0 0.0
08:47 18.2 14.9 81 1014.4 9.2 NE 11.4 0.0 0.0
08:48 18.3 15.0 81 1014.4 9.2 W 9.8 0.0 0.0
08:49 18.3 15.0 81 1014.4 12.1 NNW 12.1 0.0 0.0
08:50 18.3 15.0 81 1014.5 11.4 NNW 12.1 0.0 0.0
08:51 18.3 14.8 80 1014.4 12.1 NE 12.1 0.0 0.0
08:52 18.3 14.8 80 1014.5 11.4 NNW 12.1 0.0 0.0
08:53 18.3 14.8 80 1014.4 11.4 NNW 12.1 0.0 0.0
08:54 18.3 14.8 80 1014.5 9.2 N 13.6 0.0 0.0
08:55 18.3 14.8 80 1014.2 9.2 NE 13.6 0.0 0.0
08:56 18.3 14.8 80 1014.6 10.7 NNW 14.5 0.0 0.0
08:57 18.3 14.8 80 1014.3 7.6 N 14.5 0.0 0.0
08:58 18.4 14.9 80 1014.6 10.7 E 14.5 0.0 0.0
08:59 18.4 14.7 79 1014.3 12.1 W 14.5 0.0 0.0
09:00 18.4 14.7 79 1014.3 12.1 NNW 14.5 0.0 0.0
09:01 18.4 14.7 79 1014.6 12.1 NNW 14.5 0.0 0.0
09:02 18.4 14.7 79 1014.4 12.1 NNW 14.5 0.0 0.0
09:03 18.4 14.7 79 1014.5 12.1 NNW 14.5 0.0 0.0
09:05 18.4 14.7 79 1014.2 12.1 NNW 14.5 0.0 0.0
09:06 18.4 14.7 79 1014.5 12.1 WSW 13.0 0.0 0.0
09:07 18.4 14.7 79 1014.3 13.0 N 13.0 0.0 0.0
09:08 18.5 14.6 78 1014.4 6.9 SE 13.6 0.0 0.0
09:09 18.5 14.6 78 1014.3 8.3 NNW 13.6 0.0 0.0
09:10 18.5 14.6 78 1014.5 10.7 NNW 13.6 0.0 0.0
09:11 18.5 14.6 78 1014.4 11.4 NNW 13.6 0.0 0.0
09:12 18.5 14.6 78 1014.4 9.8 N 13.6 0.0 0.0
09:13 18.5 14.6 78 1014.4 8.3 NNW 13.6 0.0 0.0
09:14 18.5 14.6 78 1014.4 12.1 N 13.6 0.0 0.0
09:15 18.6 14.7 78 1014.5 13.0 NW 13.6 0.0 0.0
09:16 18.6 14.7 78 1014.1 13.0 N 13.6 0.0 0.0
09:17 18.6 14.7 78 1014.3 13.0 NNW 13.6 0.0 0.0
09:18 18.6 14.7 78 1014.2 9.8 NE 13.6 0.0 0.0
09:19 18.6 14.5 77 1014.3 11.4 NE 13.0 0.0 0.0
09:20 18.6 14.5 77 1014.2 10.7 WNW 13.0 0.0 0.0
09:21 18.6 14.5 77 1014.2 7.6 N 13.0 0.0 0.0
09:22 18.6 14.5 77 1014.3 9.8 N 13.0 0.0 0.0
09:23 18.6 14.5 77 1014.2 9.8 N 13.0 0.0 0.0
09:24 18.6 14.5 77 1014.2 12.1 NE 13.0 0.0 0.0
09:25 18.6 14.5 77 1014.2 12.1 NE 13.0 0.0 0.0
09:26 18.5 14.4 77 1014.3 9.8 NE 13.0 0.0 0.0
09:27 18.5 14.4 77 1014.3 15.2 SW 15.2 0.0 0.0
09:28 18.5 14.2 76 1014.4 8.3 E 15.2 0.0 0.0
09:29 18.5 14.2 76 1014.4 12.1 E 15.2 0.0 0.0
09:30 18.5 14.2 76 1014.3 13.6 N 15.2 0.0 0.0
09:31 18.4 14.1 76 1014.4 13.6 NE 15.2 0.0 0.0
09:32 18.4 14.1 76 1014.2 13.6 N 15.2 0.0 0.0
09:33 18.4 14.1 76 1014.4 15.9 N 15.9 0.0 0.0
09:34 18.4 14.1 76 1014.4 12.1 NE 15.9 0.0 0.0
09:35 18.4 14.1 76 1014.3 13.6 NE 15.9 0.0 0.0
09:36 18.3 14.0 76 1014.2 15.2 N 15.9 0.0 0.0
09:37 18.3 14.0 76 1014.3 10.7 E 15.9 0.0 0.0
09:38 18.2 13.9 76 1014.3 15.9 N 15.9 0.0 0.0
09:39 18.2 13.9 76 1014.3 12.1 N 15.9 0.0 0.0
09:40 18.2 13.9 76 1014.2 12.1 NE 15.9 0.0 0.0
09:41 18.2 13.9 76 1014.2 9.8 NE 15.9 0.0 0.0
09:42 18.2 13.9 76 1014.2 9.8 NE 15.9 0.0 0.0
09:43 18.1 13.8 76 1014.2 18.3 NW 18.3 0.0 0.0
09:44 18.1 13.8 76 1014.3 13.0 N 18.3 0.0 0.0
09:45 18.0 13.7 76 1014.3 15.9 E 18.3 0.0 0.0
09:46 18.0 13.7 76 1014.3 12.1 N 18.3 0.0 0.0
09:47 18.0 13.7 76 1014.2 11.4 NNW 18.3 0.0 0.0
09:48 17.9 13.6 76 1014.3 10.7 N 18.3 0.0 0.0
09:49 17.9 13.6 76 1014.3 13.6 E 18.3 0.0 0.0
09:50 17.9 13.6 76 1014.5 13.6 SW 18.3 0.0 0.0
09:51 17.8 13.5 76 1014.4 11.4 E 18.3 0.0 0.0
09:52 17.8 13.7 77 1014.4 11.4 N 18.3 0.0 0.0
09:53 17.8 13.7 77 1014.4 11.4 N 18.3 0.0 0.0
09:54 17.8 13.7 77 1014.3 10.7 SE 15.9 0.0 0.0
09:55 17.8 13.7 77 1014.5 7.6 E 15.9 0.0 0.0
09:56 17.8 13.7 77 1014.7 9.2 NE 15.2 0.0 0.0
09:57 17.8 13.9 78 1014.3 7.6 NW 15.2 0.0 0.0
09:58 17.8 13.9 78 1014.3 13.6 N 15.2 0.0 0.0
09:59 17.9 14.2 79 1014.4 5.4 E 15.2 0.0 0.0
10:00 17.9 14.2 79 1014.5 13.0 NE 15.2 0.0 0.0
10:01 17.9 14.2 79 1014.6 13.0 NE 15.2 0.0 0.0
10:02 17.9 14.2 79 1014.3 13.0 NE 15.2 0.0 0.0
10:03 17.9 14.2 79 1014.2 13.0 NE 15.2 0.0 0.0
10:04 17.9 14.2 79 1014.3 13.0 NE 15.2 0.0 0.0
10:05 17.9 14.2 79 1014.5 16.8 NW 16.8 0.0 0.0
10:06 17.9 14.2 79 1014.4 12.1 SE 16.8 0.0 0.0
10:07 17.9 14.0 78 1014.2 12.1 N 16.8 0.0 0.0
10:08 17.9 14.0 78 1014.2 12.1 N 16.8 0.0 0.0
10:09 17.9 14.0 78 1014.5 12.1 N 16.8 0.0 0.0
10:10 17.9 14.0 78 1014.4 9.8 E 16.8 0.0 0.0
10:11 17.9 14.0 78 1014.4 10.7 N 16.8 0.0 0.0
10:12 17.9 14.0 78 1014.2 8.3 NW 16.8 0.0 0.0
10:13 17.9 14.0 78 1014.2 8.3 N 16.8 0.0 0.0
10:14 17.9 14.0 78 1014.2 13.0 N 16.8 0.0 0.0
10:15 17.9 14.0 78 1014.3 13.0 NE 16.8 0.0 0.0
10:16 17.9 14.0 78 1014.4 9.2 NW 13.0 0.0 0.0
10:17 17.9 14.0 78 1014.4 5.4 SE 13.0 0.0 0.0
10:18 17.9 14.2 79 1014.2 13.0 N 13.0 0.0 0.0
10:19 17.9 14.2 79 1014.3 13.0 NE 13.0 0.0 0.0
10:20 18.0 14.3 79 1014.2 7.6 SW 13.0 0.0 0.0
10:21 18.0 14.3 79 1014.2 7.6 SW 13.0 0.0 0.0
10:22 18.0 14.3 79 1014.3 9.2 SE 13.0 0.0 0.0
10:23 18.0 14.3 79 1014.4 6.9 N 13.0 0.0 0.0
10:24 18.0 14.3 79 1014.3 7.6 NNW 13.0 0.0 0.0
10:25 18.1 14.4 79 1014.3 13.0 N 13.0 0.0 0.0
10:26 18.1 14.4 79 1014.4 9.2 N 13.0 0.0 0.0
10:27 18.1 14.4 79 1014.4 12.1 W 13.0 0.0 0.0
10:28 18.1 14.4 79 1014.5 12.1 NE 13.0 0.0 0.0
10:29 18.0 14.3 79 1014.5 12.1 N 13.6 0.0 0.0
10:30 18.0 14.1 78 1014.2 6.9 N 13.6 0.0 0.0
10:31 18.0 14.1 78 1014.6 8.3 SW 13.6 0.0 0.0
10:32 18.0 14.3 79 1014.6 4.5 N 13.6 0.0 0.0
10:33 18.2 14.7 80 1014.6 9.2 E 13.6 0.0 0.0
10:34 18.2 14.7 80 1014.5 9.8 NW 13.6 0.0 0.0
10:35 18.3 14.8 80 1014.7 9.2 N 13.6 0.0 0.0
10:36 18.3 14.8 80 1014.6 9.2 N 13.6 0.0 0.0
10:37 18.3 14.6 79 1014.5 9.8 N 13.6 0.0 0.0
10:38 18.3 14.6 79 1014.5 9.8 N 13.6 0.0 0.0
10:39 18.4 14.7 79 1014.3 8.3 NW 13.6 0.0 0.0
10:40 18.4 14.7 79 1014.2 8.3 N 9.8 0.0 0.0
10:41 18.4 14.7 79 1014.4 8.3 N 9.8 0.0 0.0
10:42 18.4 14.7 79 1014.4 6.0 N 9.8 0.0 0.0
10:43 18.5 14.8 79 1014.6 8.3 N 9.8 0.0 0.0
10:44 18.5 14.6 78 1014.4 8.3 N 9.8 0.0 0.0
10:45 18.5 14.6 78 1014.3 8.3 N 9.8 0.0 0.0
10:46 18.6 14.9 79 1014.4 7.6 N 9.8 0.0 0.0
10:47 18.7 15.0 79 1014.2 3.8 E 9.8 0.0 0.0
10:48 18.8 15.1 79 1014.5 8.3 N 9.2 0.0 0.0
10:49 18.9 15.2 79 1014.1 9.8 N 9.8 0.0 0.0
10:50 18.9 15.2 79 1014.2 9.8 W 9.8 0.0 0.0
10:51 19.0 15.3 79 1014.1 11.4 NE 11.4 0.0 0.0
10:52 19.0 15.1 78 1014.4 7.6 SW 11.4 0.0 0.0
10:53 19.2 15.3 78 1014.4 9.2 NE 11.4 0.0 0.0
10:54 19.3 15.4 78 1014.3 7.6 W 11.4 0.0 0.0
10:55 19.4 15.5 78 1014.3 9.2 E 11.4 0.0 0.0
10:56 19.4 15.3 77 1014.4 11.4 N 12.1 0.0 0.0
10:57 19.4 15.1 76 1014.3 9.8 NE 12.1 0.0 0.0
10:58 19.4 15.1 76 1014.3 7.6 N 12.1 0.0 0.0
10:59 19.4 15.1 76 1014.1 6.9 NE 12.1 0.0 0.0
11:00 19.4 15.1 76 1014.2 8.3 N 12.1 0.0 0.0
11:01 19.4 15.1 76 1014.3 8.3 N 12.1 0.0 0.0
11:02 19.4 15.1 76 1014.3 8.3 N 12.1 0.0 0.0
11:03 19.4 15.1 76 1014.3 8.3 N 12.1 0.0 0.0
11:04 19.4 15.1 76 1014.4 8.3 N 12.1 0.0 0.0
11:05 19.4 15.1 76 1014.3 8.3 N 12.1 0.0 0.0
11:06 19.7 15.4 76 1014.4 11.4 E 12.1 0.0 0.0
11:07 19.9 15.6 76 1014.3 4.5 NE 11.4 0.0 0.0
11:08 20.0 15.7 76 1014.2 6.0 N 11.4 0.0 0.0
11:09 20.1 15.8 76 1014.1 10.7 NE 11.4 0.0 0.0
11:10 20.1 15.5 75 1014.2 9.2 NE 11.4 0.0 0.0
11:11 20.1 15.5 75 1014.3 10.7 N 11.4 0.0 0.0
11:12 20.1 15.5 75 1014.4 10.7 N 11.4 0.0 0.0
11:13 20.0 15.2 74 1014.2 6.9 SW 11.4 0.0 0.0
11:14 20.1 15.3 74 1014.4 7.6 SW 11.4 0.0 0.0
11:15 20.1 15.3 74 1014.3 7.6 SW 11.4 0.0 0.0
11:16 20.2 15.4 74 1014.3 6.9 NW 10.7 0.0 0.0
11:17 20.3 15.5 74 1014.3 12.1 SW 12.1 0.0 0.0
11:18 20.3 15.5 74 1014.4 8.3 E 12.1 0.0 0.0
11:19 20.4 15.6 74 1014.3 8.3 E 12.1 0.0 0.0
11:20 20.4 15.6 74 1014.4 8.3 NW 12.1 0.0 0.0
11:21 20.4 15.4 73 1014.1 9.8 NW 12.1 0.0 0.0
11:22 20.4 15.4 73 1014.3 8.3 N 12.1 0.0 0.0
11:23 20.5 15.5 73 1014.3 6.9 N 12.1 0.0 0.0
11:24 20.5 15.5 73 1014.5 9.2 NE 12.1 0.0 0.0
11:25 20.6 15.6 73 1014.5 9.2 NE 12.1 0.0 0.0
11:26 20.6 15.4 72 1014.3 6.0 N 12.1 0.0 0.0
11:27 20.7 15.5 72 1014.5 5.4 NE 12.1 0.0 0.0
11:28 20.8 15.8 73 1014.2 9.2 W 9.8 0.0 0.0
11:29 20.8 15.6 72 1014.2 9.2 N 9.8 0.0 0.0
11:30 20.9 15.9 73 1014.1 7.6 N 9.8 0.0 0.0
11:31 20.9 15.9 73 1014.3 10.7 NE 10.7 0.0 0.0
11:32 21.0 15.8 72 1014.1 9.8 N 10.7 0.0 0.0
11:33 21.1 15.9 72 1014.3 9.2 NW 10.7 0.0 0.0
11:34 21.1 15.9 72 1014.3 9.2 NW 10.7 0.0 0.0
11:35 21.1 15.9 72 1014.2 8.3 NE 10.7 0.0 0.0
11:36 21.2 16.0 72 1014.1 9.2 N 10.7 0.0 0.0
11:37 21.2 16.0 72 1014.4 9.2 E 10.7 0.0 0.0
11:38 21.3 16.1 72 1014.2 6.0 N 10.7 0.0 0.0
11:39 21.4 16.2 72 1014.5 11.4 NE 11.4 0.0 0.0
11:40 21.5 16.3 72 1014.2 12.1 NE 12.1 0.0 0.0
11:41 21.5 16.3 72 1014.3 3.8 NW 12.1 0.0 0.0
11:42 21.6 16.4 72 1014.2 7.6 NE 12.1 0.0 0.0
11:43 21.6 16.4 72 1014.4 9.2 N 12.1 0.0 0.0
11:44 21.7 16.2 71 1014.5 10.7 SW 12.1 0.0 0.0
11:45 21.7 16.2 71 1014.6 9.2 N 12.1 0.0 0.0
11:46 21.6 15.9 70 1014.2 11.4 NE 12.1 0.0 0.0
11:47 21.6 15.9 70 1014.4 9.8 N 12.1 0.0 0.0
11:48 21.5 15.8 70 1014.2 9.8 N 12.1 0.0 0.0
11:49 21.5 15.8 70 1014.4 12.1 NE 12.1 0.0 0.0
11:50 21.5 15.8 70 1014.2 7.6 N 12.1 0.0 0.0
11:51 21.4 15.7 70 1014.4 5.4 N 13.6 0.0 0.0
11:52 21.5 15.8 70 1014.1 9.8 N 13.6 0.0 0.0
11:53 21.5 15.8 70 1014.4 11.4 N 13.6 0.0 0.0
11:54 21.5 15.8 70 1014.3 11.4 N 13.6 0.0 0.0
11:55 21.5 15.8 70 1014.2 11.4 N 13.6 0.0 0.0
11:56 21.5 15.8 70 1014.6 5.4 NE 13.6 0.0 0.0
11:57 21.5 15.8 70 1014.3 5.4 NE 13.6 0.0 0.0
11:58 21.5 15.8 70 1014.4 8.3 E 13.6 0.0 0.0
11:59 21.6 16.1 71 1014.3 6.0 S 13.6 0.0 0.0
12:00 21.6 16.1 71 1014.5 6.0 NE 13.6 0.0 0.0
12:01 21.6 16.1 71 1014.5 6.0 NE 12.1 0.0 0.0
12:02 21.6 16.1 71 1014.5 6.0 NE 12.1 0.0 0.0
12:03 21.8 16.1 70 1014.5 13.6 NW 13.6 0.0 0.0
12:04 21.7 16.0 70 1014.3 9.8 N 13.6 0.0 0.0
12:05 21.7 16.0 70 1014.3 13.6 N 13.6 0.0 0.0
12:06 21.7 16.0 70 1014.3 8.3 E 13.6 0.0 0.0
12:07 21.7 16.0 70 1014.4 8.3 NE 13.6 0.0 0.0
12:08 21.7 16.0 70 1014.3 9.8 NE 13.6 0.0 0.0
12:09 21.7 16.0 70 1014.3 9.8 NE 13.6 0.0 0.0
12:10 21.8 16.1 70 1014.4 12.1 N 13.6 0.0 0.0
12:11 21.8 16.1 70 1014.4 9.8 N 13.6 0.0 0.0
12:12 21.8 16.1 70 1014.4 10.7 NE 13.6 0.0 0.0
12:13 21.8 16.1 70 1014.5 10.7 SW 13.6 0.0 0.0
12:14 21.8 16.1 70 1014.3 9.8 N 13.6 0.0 0.0
12:15 21.8 16.1 70 1014.4 16.8 NW 16.8 0.0 0.0
12:16 21.6 15.7 69 1014.3 11.4 N 16.8 0.0 0.0
12:17 21.6 15.7 69 1014.3 11.4 N 16.8 0.0 0.0
12:18 21.5 15.6 69 1014.4 9.8 N 16.8 0.0 0.0
12:19 21.4 15.7 70 1014.5 7.6 NW 16.8 0.0 0.0
12:20 21.5 15.8 70 1014.5 9.8 NW 16.8 0.0 0.0
12:21 21.5 15.8 70 1014.4 13.6 N 16.8 0.0 0.0
12:22 21.5 15.8 70 1014.4 13.6 N 16.8 0.0 0.0
12:23 21.6 15.9 70 1014.6 13.6 NE 16.8 0.0 0.0
12:24 21.6 15.9 70 1014.6 15.9 NW 16.8 0.0 0.0
12:25 21.6 15.9 70 1014.4 9.8 N 16.8 0.0 0.0
12:26 21.6 15.9 70 1014.4 6.9 E 15.9 0.0 0.0
12:27 21.7 16.2 71 1014.6 5.4 N 15.9 0.0 0.0
12:28 21.9 16.4 71 1014.4 10.7 NE 15.9 0.0 0.0
12:29 22.0 16.3 70 1014.6 10.7 W 15.9 0.0 0.0
12:30 22.0 16.3 70 1014.5 10.7 NE 15.9 0.0 0.0
12:31 22.0 16.3 70 1014.5 11.4 E 15.9 0.0 0.0
12:32 22.0 16.3 70 1014.6 11.4 N 15.9 0.0 0.0
12:33 22.0 16.3 70 1014.6 12.1 N 15.9 0.0 0.0
12:34 22.0 16.3 70 1014.7 8.3 NE 15.9 0.0 0.0
12:35 22.0 16.3 70 1014.7 13.6 N 13.6 0.0 0.0
12:36 22.1 16.4 70 1014.7 13.6 N 13.6 0.0 0.0
12:37 22.1 16.4 70 1014.7 8.3 N 13.6 0.0 0.0
12:38 22.1 16.4 70 1014.7 11.4 NE 13.6 0.0 0.0
12:39 22.1 16.4 70 1014.7 10.7 NW 13.6 0.0 0.0
12:40 22.2 16.5 70 1014.6 9.2 SW 13.6 0.0 0.0
12:41 22.3 16.6 70 1014.5 14.5 N 14.5 0.0 0.0
12:42 22.2 16.5 70 1014.7 12.1 N 14.5 0.0 0.0
12:43 22.2 16.5 70 1014.6 8.3 N 14.5 0.0 0.0
12:44 22.2 16.3 69 1014.8 9.2 NW 14.5 0.0 0.0
12:45 22.2 16.3 69 1014.8 9.2 NW 14.5 0.0 0.0
12:46 22.2 16.5 70 1014.7 11.4 NW 14.5 0.0 0.0
12:47 22.3 16.6 70 1014.6 9.8 NE 14.5 0.0 0.0
12:48 22.4 16.7 70 1014.7 8.3 N 14.5 0.0 0.0
12:49 22.4 16.7 70 1014.7 9.8 NE 14.5 0.0 0.0
12:50 22.5 16.1 67 1014.6 9.8 SE 14.5 0.0 0.0
12:51 22.6 16.2 67 1014.7 9.8 N 14.5 0.0 0.0
12:52 22.6 15.9 66 1014.4 11.4 N 13.6 0.0 0.0
12:53 22.6 15.9 66 1014.6 10.7 N 13.6 0.0 0.0
12:54 22.5 15.6 65 1014.4 12.1 W 12.1 0.0 0.0
12:55 22.5 15.6 65 1014.5 9.2 N 12.1 0.0 0.0
12:56 22.4 16.5 69 1014.4 9.2 NE 12.1 0.0 0.0
12:57 22.4 16.5 69 1014.7 13.0 N 13.0 0.0 0.0
12:58 22.4 16.5 69 1014.7 13.0 NE 13.0 0.0 0.0
12:59 22.4 16.5 69 1014.6 12.1 N 13.0 0.0 0.0
13:00 22.3 16.4 69 1014.7 12.1 N 13.0 0.0 0.0
13:01 22.3 16.4 69 1014.5 12.1 N 13.0 0.0 0.0
13:02 22.3 16.4 69 1014.7 12.1 N 13.0 0.0 0.0
13:03 22.1 16.2 69 1014.4 13.6 N 13.6 0.0 0.0
13:04 22.1 16.2 69 1014.6 12.1 N 13.6 0.0 0.0
13:05 22.1 16.2 69 1014.7 12.1 NE 13.6 0.0 0.0
13:06 22.0 16.3 70 1014.5 12.1 N 13.6 0.0 0.0
13:07 22.0 16.3 70 1014.5 9.2 E 13.6 0.0 0.0
13:08 22.1 16.4 70 1014.5 11.4 NW 13.6 0.0 0.0
13:09 22.1 16.4 70 1014.6 9.8 N 13.6 0.0 0.0
13:10 22.1 16.4 70 1014.5 10.7 W 13.6 0.0 0.0
13:11 22.2 16.5 70 1014.6 10.7 NW 13.6 0.0 0.0
13:12 22.2 16.5 70 1014.4 10.7 NE 13.6 0.0 0.0
13:13 22.2 16.5 70 1014.4 10.7 NE 13.6 0.0 0.0
13:14 22.2 16.5 70 1014.7 10.7 N 12.1 0.0 0.0
13:15 22.2 16.5 70 1014.7 13.0 SE 13.0 0.0 0.0
13:16 22.2 16.5 70 1014.7 12.1 NE 13.0 0.0 0.0
13:17 22.2 16.5 70 1014.6 8.3 N 13.0 0.0 0.0
13:18 22.2 16.5 70 1014.6 8.3 N 13.0 0.0 0.0
13:19 22.3 16.6 70 1014.8 9.8 SE 13.0 0.0 0.0
13:20 22.4 16.7 70 1014.7 9.8 N 13.0 0.0 0.0
13:21 22.4 16.7 70 1014.6 9.8 E 13.0 0.0 0.0
13:22 22.5 15.8 66 1014.8 10.7 N 13.0 0.0 0.0
13:23 22.4 16.5 69 1014.6 12.1 N 13.0 0.0 0.0
13:24 22.4 16.7 70 1014.7 8.3 N 13.0 0.0 0.0
13:25 22.4 16.7 70 1014.6 9.2 N 13.0 0.0 0.0
13:26 22.5 15.8 66 1014.6 11.4 N 12.1 0.0 0.0
13:27 22.6 15.9 66 1014.5 7.6 NE 12.1 0.0 0.0
13:28 22.6 15.7 65 1014.5 8.3 NW 12.1 0.0 0.0
13:29 22.6 15.7 65 1014.7 8.3 N 12.1 0.0 0.0
13:30 22.6 15.7 65 1014.8 12.1 NW 12.1 0.0 0.0
13:31 22.6 15.7 65 1014.6 9.8 E 12.1 0.0 0.0
13:32 22.6 15.7 65 1014.5 13.0 NE 13.0 0.0 0.0
13:33 22.6 15.7 65 1014.5 13.0 NE 13.0 0.0 0.0
13:34 22.5 15.4 64 1014.6 8.3 N 13.0 0.0 0.0
13:35 22.5 15.6 65 1014.6 10.7 E 13.0 0.0 0.0
13:36 22.5 15.6 65 1014.6 11.4 N 13.0 0.0 0.0
13:37 22.5 15.6 65 1014.6 12.1 N 13.0 0.0 0.0
13:38 22.5 15.6 65 1014.5 9.8 NE 13.0 0.0 0.0
13:39 22.6 15.7 65 1014.7 6.9 N 13.0 0.0 0.0
13:40 22.7 15.8 65 1014.5 7.6 N 13.0 0.0 0.0
13:41 22.7 15.6 64 1014.4 10.7 NW 13.0 0.0 0.0
13:42 22.7 15.6 64 1014.4 10.7 NE 13.0 0.0 0.0
13:43 22.7 15.6 64 1014.5 13.0 E 13.0 0.0 0.0
13:44 22.7 15.3 63 1014.4 11.4 NW 13.0 0.0 0.0
13:45 22.7 15.3 63 1014.3 7.6 N 13.0 0.0 0.0
13:46 22.7 15.3 63 1014.5 11.4 NE 13.0 0.0 0.0
13:47 22.7 15.3 63 1014.4 7.6 N 13.0 0.0 0.0
13:48 22.7 15.3 63 1014.5 9.2 NNW 13.0 0.0 0.0
13:49 22.7 15.3 63 1014.4 9.2 S 13.0 0.0 0.0
13:50 22.8 15.7 64 1014.5 9.8 E 13.0 0.0 0.0
13:51 22.8 15.4 63 1014.4 7.6 NE 13.0 0.0 0.0
13:52 22.8 15.4 63 1014.4 9.8 N 13.0 0.0 0.0
13:53 22.8 15.4 63 1014.3 9.8 NE 13.0 0.0 0.0
13:54 22.8 15.4 63 1014.4 12.1 N 12.1 0.0 0.0
13:55 22.8 15.4 63 1014.2 12.1 N 12.1 0.0 0.0
13:56 22.8 15.4 63 1014.1 9.8 NW 12.1 0.0 0.0
13:57 22.7 15.3 63 1014.2 12.1 NE 12.1 0.0 0.0
13:58 22.8 15.4 63 1014.5 8.3 NE 12.1 0.0 0.0
13:59 22.8 15.7 64 1014.3 7.6 NE 12.1 0.0 0.0
14:00 22.9 15.7 64 1014.1 9.8 NE 12.1 0.0 0.0
14:01 22.9 15.7 64 1014.4 9.8 NE 12.1 0.0 0.0
14:02 22.9 15.7 64 1014.4 9.8 NE 12.1 0.0 0.0
14:03 22.9 15.7 64 1014.3 9.8 NE 12.1 0.0 0.0
14:04 22.9 15.7 64 1014.2 9.8 NE 12.1 0.0 0.0
14:05 22.9 15.7 64 1014.4 9.8 NE 12.1 0.0 0.0
14:06 22.8 15.7 64 1014.3 11.4 NE 12.1 0.0 0.0
14:07 22.8 15.7 64 1014.2 7.6 NE 12.1 0.0 0.0
14:08 22.8 15.9 65 1014.5 8.3 N 11.4 0.0 0.0
14:09 22.9 16.0 65 1014.4 9.8 NW 11.4 0.0 0.0
14:10 22.9 15.7 64 1014.3 9.8 N 11.4 0.0 0.0
14:11 22.8 15.7 64 1014.3 9.8 NW 11.4 0.0 0.0
14:12 22.8 15.7 64 1014.2 12.1 NE 12.1 0.0 0.0
14:13 22.7 15.6 64 1014.4 13.6 NW 13.6 0.0 0.0
14:14 22.7 15.6 64 1014.4 13.6 N 13.6 0.0 0.0
14:15 22.7 15.6 64 1014.3 10.7 NE 13.6 0.0 0.0
14:16 22.7 15.8 65 1014.2 10.7 SW 13.6 0.0 0.0
14:17 22.7 15.8 65 1014.5 7.6 N 13.6 0.0 0.0
14:18 22.8 15.9 65 1014.1 9.2 N 13.6 0.0 0.0
14:19 22.8 15.7 64 1014.2 11.4 NE 13.6 0.0 0.0
14:20 22.8 15.7 64 1014.4 8.3 NW 13.6 0.0 0.0
14:21 22.8 15.9 65 1014.5 6.0 N 13.6 0.0 0.0
14:22 22.8 15.9 65 1014.1 6.0 N 13.6 0.0 0.0
14:23 23.1 16.4 66 1014.4 7.6 N 13.6 0.0 0.0
14:24 23.4 16.9 67 1014.5 5.4 NE 13.6 0.0 0.0
14:25 23.5 16.8 66 1014.4 7.6 W 12.1 0.0 0.0
14:26 23.5 16.6 65 1014.3 7.6 NE 12.1 0.0 0.0
14:27 23.5 16.6 65 1014.3 7.6 NE 12.1 0.0 0.0
14:28 23.6 16.2 63 1014.7 9.8 N 12.1 0.0 0.0
14:29 23.5 15.8 62 1014.3 7.6 NE 11.4 0.0 0.0
14:30 23.5 15.8 62 1014.3 7.6 NE 9.8 0.0 0.0
14:31 23.5 16.1 63 1014.3 6.9 N 9.8 0.0 0.0
14:32 23.5 16.1 63 1014.5 6.9 N 9.8 0.0 0.0
14:33 23.5 16.3 64 1014.5 6.9 E 9.8 0.0 0.0
14:34 23.6 16.4 64 1014.4 10.7 NE 10.7 0.0 0.0
14:35 23.6 16.2 63 1014.4 8.3 N 10.7 0.0 0.0
14:36 23.6 15.9 62 1014.4 9.8 N 10.7 0.0 0.0
14:37 23.6 16.2 63 1014.4 6.9 W 10.7 0.0 0.0
14:38 23.6 15.9 62 1014.4 11.4 N 12.1 0.0 0.0
14:39 23.6 15.9 62 1014.4 11.4 NW 12.1 0.0 0.0
14:40 23.5 15.8 62 1014.2 8.3 SE 12.1 0.0 0.0
14:41 23.5 15.8 62 1014.4 11.4 NW 12.1 0.0 0.0
14:42 23.5 16.1 63 1014.2 11.4 N 12.1 0.0 0.0
14:43 23.5 15.8 62 1014.4 11.4 NW 12.1 0.0 0.0
14:44 23.4 15.7 62 1014.4 9.2 NW 12.1 0.0 0.0
14:45 23.4 15.7 62 1014.5 6.9 SE 12.1 0.0 0.0
14:46 23.4 15.7 62 1014.3 12.1 N 12.1 0.0 0.0
14:47 23.3 15.6 62 1014.5 13.6 NE 13.6 0.0 0.0
14:48 23.2 15.5 62 1014.4 11.4 N 13.6 0.0 0.0
14:49 23.2 15.5 62 1014.5 11.4 N 13.6 0.0 0.0
14:50 23.2 15.5 62 1014.2 11.4 N 13.6 0.0 0.0
14:51 23.1 15.4 62 1014.2 13.0 NE 13.6 0.0 0.0
14:52 23.1 15.7 63 1014.4 6.9 E 13.6 0.0 0.0
14:53 23.1 15.4 62 1014.4 13.6 NE 13.6 0.0 0.0
14:54 23.1 15.4 62 1014.4 13.6 NE 13.6 0.0 0.0
14:55 23.1 15.4 62 1014.5 10.7 N 13.6 0.0 0.0
14:56 23.1 15.4 62 1014.4 10.7 N 13.6 0.0 0.0
14:57 23.1 15.7 63 1014.2 8.3 NE 13.6 0.0 0.0
14:58 23.1 15.7 63 1014.2 8.3 NE 13.6 0.0 0.0
14:59 23.2 15.8 63 1014.4 10.7 N 13.6 0.0 0.0
15:00 23.3 15.9 63 1014.2 15.9 NW 15.9 0.0 0.0
15:01 23.3 15.9 63 1014.4 15.9 NW 15.9 0.0 0.0
15:02 23.3 15.9 63 1014.2 15.9 NW 15.9 0.0 0.0
15:03 23.4 15.7 62 1014.4 12.1 N 15.9 0.0 0.0
15:04 23.4 15.7 62 1014.4 12.1 N 15.9 0.0 0.0
15:05 23.3 15.6 62 1014.5 11.4 N 15.9 0.0 0.0
15:06 23.3 15.4 61 1014.3 12.1 N 15.9 0.0 0.0
15:07 23.3 15.6 62 1014.5 6.0 W 15.9 0.0 0.0
15:08 23.3 15.6 62 1014.5 10.7 N 15.9 0.0 0.0
15:09 23.3 15.6 62 1014.6 7.6 E 15.9 0.0 0.0
15:10 23.3 15.6 62 1014.5 12.1 W 15.9 0.0 0.0
15:11 23.4 16.0 63 1014.6 6.0 NW 15.9 0.0 0.0
15:12 23.5 15.8 62 1014.5 9.8 SW 15.9 0.0 0.0
15:13 23.5 15.8 62 1014.5 9.8 SW 13.0 0.0 0.0
15:14 23.5 15.6 61 1014.4 9.8 N 13.0 0.0 0.0
15:15 23.4 15.5 61 1014.6 15.2 NE 15.2 0.0 0.0
15:16 23.2 15.3 61 1014.5 12.1 N 15.2 0.0 0.0
15:17 23.2 15.5 62 1014.7 12.1 NW 15.2 0.0 0.0
15:18 23.2 15.5 62 1014.7 15.2 N 15.2 0.0 0.0
15:19 23.1 15.4 62 1014.6 11.4 N 15.2 0.0 0.0
15:20 23.0 15.3 62 1014.8 13.6 N 15.2 0.0 0.0
15:21 23.0 15.3 62 1014.5 13.6 NE 15.2 0.0 0.0
15:22 23.0 15.3 62 1014.5 13.6 NE 15.2 0.0 0.0
15:23 23.0 15.3 62 1014.7 13.0 N 15.2 0.0 0.0
15:24 22.9 15.3 62 1014.5 11.4 N 15.2 0.0 0.0
15:25 22.9 15.3 62 1014.7 11.4 NE 15.2 0.0 0.0
15:26 22.9 15.5 63 1014.8 11.4 NW 15.2 0.0 0.0
15:27 22.8 15.2 62 1014.5 15.9 N 15.9 0.0 0.0
15:28 22.8 15.2 62 1014.5 15.2 NW 15.9 0.0 0.0
15:29 22.7 15.3 63 1014.7 9.8 N 15.9 0.0 0.0
15:30 22.6 15.2 63 1014.7 13.0 N 15.9 0.0 0.0
15:31 22.6 15.2 63 1014.8 13.0 N 15.9 0.0 0.0
15:32 22.6 15.2 63 1014.4 13.0 N 15.9 0.0 0.0
15:33 22.6 15.2 63 1014.6 13.0 N 15.9 0.0 0.0
15:34 22.6 15.2 63 1014.4 13.0 W 15.9 0.0 0.0
15:35 22.5 15.1 63 1014.7 9.2 NW 15.9 0.0 0.0
15:36 22.5 15.1 63 1014.7 10.7 NE 15.9 0.0 0.0
15:37 22.5 15.4 64 1014.6 12.1 N 15.9 0.0 0.0
15:38 22.5 15.4 64 1014.6 10.7 NW 15.2 0.0 0.0
15:39 22.6 15.5 64 1014.7 8.3 NW 15.2 0.0 0.0
15:40 22.6 15.5 64 1014.5 13.0 NE 13.0 0.0 0.0
15:41 22.6 15.5 64 1014.8 13.0 NE 13.0 0.0 0.0
15:42 22.7 15.3 63 1014.7 10.7 N 13.0 0.0 0.0
15:43 22.6 15.2 63 1014.6 11.4 N 15.2 0.0 0.0
15:44 22.6 15.2 63 1014.7 11.4 W 15.2 0.0 0.0
15:45 22.6 15.2 63 1014.6 10.7 N 15.2 0.0 0.0
15:46 22.6 15.2 63 1014.5 10.7 N 15.2 0.0 0.0
15:47 22.6 15.2 63 1014.7 6.9 WSW 15.2 0.0 0.0
15:48 22.6 15.2 63 1014.5 14.5 NNW 15.2 0.0 0.0
15:49 22.5 15.4 64 1014.7 13.6 S 15.2 0.0 0.0
15:50 22.5 15.4 64 1014.7 13.6 S 15.2 0.0 0.0
15:51 22.6 15.2 63 1014.4 14.5 N 15.2 0.0 0.0
15:52 22.5 15.1 63 1014.7 14.5 E 15.2 0.0 0.0
15:53 22.5 15.1 63 1014.3 14.5 E 15.2 0.0 0.0
15:54 22.4 15.8 66 1014.5 12.1 W 15.2 0.0 0.0
15:55 22.4 16.0 67 1014.5 10.7 SE 15.2 0.0 0.0
15:56 22.5 15.4 64 1014.7 7.6 SE 15.2 0.0 0.0
15:57 22.5 15.4 64 1014.7 12.1 N 15.2 0.0 0.0
15:58 22.6 15.2 63 1014.5 12.1 NE 14.5 0.0 0.0
15:59 22.6 15.2 63 1014.5 15.9 E 15.9 0.0 0.0
16:00 22.5 15.1 63 1014.6 11.4 N 15.9 0.0 0.0
16:01 22.5 15.1 63 1014.5 11.4 N 15.9 0.0 0.0
16:02 22.5 15.1 63 1014.7 11.4 N 15.9 0.0 0.0
16:03 22.5 15.1 63 1014.5 12.1 NW 15.9 0.0 0.0
16:04 22.5 15.1 63 1014.5 11.4 N 15.9 0.0 0.0
16:05 22.5 15.1 63 1014.6 11.4 NE 15.9 0.0 0.0
16:06 22.5 15.4 64 1014.5 8.3 NE 15.9 0.0 0.0
16:07 22.6 15.7 65 1014.8 7.6 N 15.9 0.0 0.0
16:08 22.7 15.8 65 1014.8 7.6 N 15.9 0.0 0.0
16:09 22.7 15.8 65 1014.8 7.6 N 15.9 0.0 0.0
16:10 22.7 15.8 65 1014.7 7.6 N 12.1 0.0 0.0
16:11 22.9 15.5 63 1014.6 6.9 ESE 12.1 0.0 0.0
16:12 22.9 15.3 62 1014.8 9.8 NW 12.1 0.0 0.0
16:13 22.8 15.2 62 1014.6 9.2 E 12.1 0.0 0.0
16:14 22.8 15.2 62 1014.9 4.5 N 11.4 0.0 0.0
16:15 22.8 15.4 63 1014.9 6.0 NE 9.8 0.0 0.0
16:16 22.9 15.7 64 1014.9 6.0 SE 9.8 0.0 0.0
16:17 23.0 15.8 64 1014.7 4.5 SE 9.8 0.0 0.0
16:18 23.0 15.8 64 1014.7 4.5 SE 9.8 0.0 0.0
16:19 23.1 15.9 64 1014.9 9.8 W 9.8 0.0 0.0
16:20 23.1 15.7 63 1014.8 10.7 N 10.7 0.0 0.0
16:21 23.1 15.7 63 1014.9 10.7 N 10.7 0.0 0.0
16:22 23.1 15.4 62 1014.9 13.0 NE 13.0 0.0 0.0
16:23 23.1 15.9 64 1015.0 4.5 NE 13.0 0.0 0.0
16:24 23.1 15.9 64 1015.0 4.5 NE 13.0 0.0 0.0
16:25 23.2 15.8 63 1014.9 3.8 E 13.0 0.0 0.0
16:26 23.3 15.9 63 1014.9 6.9 N 13.0 0.0 0.0
16:27 23.3 15.9 63 1015.1 6.9 NE 13.0 0.0 0.0
16:28 23.5 16.1 63 1014.9 6.9 N 13.0 0.0 0.0
16:29 23.5 16.1 63 1014.8 6.9 N 13.0 0.0 0.0
16:30 23.5 16.1 63 1014.8 3.8 NNW 13.0 0.0 0.0
16:31 23.6 16.2 63 1014.8 9.2 E 13.0 0.0 0.0
16:32 23.6 16.2 63 1014.9 9.2 NE 9.2 0.0 0.0
16:33 23.7 16.3 63 1014.8 9.2 N 9.2 0.0 0.0
16:34 23.7 16.0 62 1014.9 5.4 SW 9.2 0.0 0.0
16:35 23.8 16.1 62 1014.7 5.4 NE 9.2 0.0 0.0
16:36 23.8 16.1 62 1014.7 9.2 N 9.2 0.0 0.0
16:37 23.8 15.8 61 1014.8 9.2 NW 9.2 0.0 0.0
16:38 23.7 15.5 60 1014.7 6.9 N 9.2 0.0 0.0
16:39 23.6 15.7 61 1014.8 6.9 NW 9.2 0.0 0.0
16:40 23.6 15.7 61 1014.8 6.9 NE 9.2 0.0 0.0
16:41 23.6 15.7 61 1014.8 5.4 NE 9.2 0.0 0.0
16:42 23.6 15.7 61 1014.8 5.4 NW 9.2 0.0 0.0
16:43 23.6 15.9 62 1014.5 7.6 N 9.2 0.0 0.0
16:44 23.6 15.9 62 1014.9 4.5 E 11.4 0.0 0.0
16:45 23.6 15.7 61 1014.7 6.0 NW 11.4 0.0 0.0
16:46 23.5 15.8 62 1014.4 7.6 W 11.4 0.0 0.0
16:47 23.5 15.8 62 1014.8 5.4 N 11.4 0.0 0.0
16:48 23.6 15.9 62 1014.6 6.9 NE 11.4 0.0 0.0
16:49 23.6 15.9 62 1014.6 6.0 W 11.4 0.0 0.0
16:50 23.6 15.9 62 1014.7 7.6 N 11.4 0.0 0.0
16:51 23.6 15.7 61 1014.7 7.6 NW 11.4 0.0 0.0
16:52 23.6 15.9 62 1014.7 9.2 N 11.4 0.0 0.0
16:53 23.6 15.7 61 1014.7 9.8 NW 11.4 0.0 0.0
16:54 23.5 15.6 61 1014.4 10.7 NW 11.4 0.0 0.0
16:56 23.5 15.8 62 1014.7 6.0 E 10.7 0.0 0.0
16:57 23.5 15.8 62 1014.5 6.0 NE 10.7 0.0 0.0
16:58 23.5 15.8 62 1014.6 6.9 N 10.7 0.0 0.0
16:59 23.5 15.6 61 1014.6 6.9 N 10.7 0.0 0.0
17:00 23.5 15.8 62 1014.6 6.9 W 10.7 0.0 0.0
17:01 23.5 15.8 62 1014.6 6.9 W 10.7 0.0 0.0
17:02 23.5 15.8 62 1014.6 6.9 W 10.7 0.0 0.0
17:03 23.6 15.9 62 1014.7 7.6 N 10.7 0.0 0.0
17:04 23.6 15.7 61 1014.7 8.3 NE 9.8 0.0 0.0
17:05 23.6 15.7 61 1014.8 7.6 S 9.8 0.0 0.0
17:06 23.6 15.7 61 1014.5 9.8 N 9.8 0.0 0.0
17:07 23.6 15.7 61 1014.6 4.5 SE 9.8 0.0 0.0
17:08 23.6 15.7 61 1014.5 6.0 N 9.8 0.0 0.0
17:09 23.6 15.9 62 1014.5 6.0 NE 9.8 0.0 0.0
17:10 23.7 16.0 62 1014.5 3.8 NW 9.8 0.0 0.0
17:11 23.8 16.1 62 1014.5 6.0 N 9.8 0.0 0.0
17:12 23.9 16.2 62 1014.6 4.5 NE 9.8 0.0 0.0
17:13 24.0 16.3 62 1014.5 3.8 N 9.8 0.0 0.0
17:14 24.0 16.3 62 1014.6 6.0 N 9.8 0.0 0.0
17:15 24.1 16.4 62 1014.3 7.6 N 9.8 0.0 0.0
17:16 24.1 16.1 61 1014.5 4.5 SE 9.8 0.0 0.0
17:17 24.2 16.5 62 1014.5 6.9 NE 7.6 0.0 0.0
17:19 24.2 16.2 61 1014.4 6.9 N 7.6 0.0 0.0
17:20 24.1 16.1 61 1014.5 7.6 N 7.6 0.0 0.0
17:21 24.1 16.1 61 1014.5 7.6 N 7.6 0.0 0.0
17:22 24.0 16.0 61 1014.7 6.0 NE 7.6 0.0 0.0
17:23 24.0 16.0 61 1014.4 5.4 N 7.6 0.0 0.0
17:24 23.9 15.9 61 1014.5 5.4 SE 7.6 0.0 0.0
17:25 24.0 16.0 61 1014.4 5.4 W 7.6 0.0 0.0
17:26 24.0 16.0 61 1014.6 5.4 NW 7.6 0.0 0.0
17:27 24.0 16.0 61 1014.7 5.4 NW 7.6 0.0 0.0
17:28 24.0 16.0 61 1014.4 5.4 NW 7.6 0.0 0.0
17:29 24.0 16.0 61 1014.6 9.2 NW 9.2 0.0 0.0
17:30 24.0 16.0 61 1014.4 9.2 NW 9.2 0.0 0.0
17:31 24.1 16.4 62 1014.4 4.5 NW 9.2 0.0 0.0
17:32 24.1 16.1 61 1014.4 9.8 N 9.8 0.0 0.0
17:33 24.1 16.1 61 1014.6 9.8 N 9.8 0.0 0.0
17:34 24.1 16.1 61 1014.5 9.8 N 9.8 0.0 0.0
17:35 24.0 15.8 60 1014.5 6.9 NE 9.8 0.0 0.0
17:36 24.0 16.0 61 1014.5 6.9 NW 9.8 0.0 0.0
17:37 24.0 16.0 61 1014.6 6.9 NW 9.8 0.0 0.0
17:38 24.0 16.0 61 1014.7 7.6 NE 9.8 0.0 0.0
17:39 24.0 16.0 61 1014.6 4.5 NW 9.8 0.0 0.0
17:40 23.9 15.9 61 1014.5 5.4 N 9.8 0.0 0.0
17:41 23.9 15.9 61 1014.5 5.4 N 9.8 0.0 0.0
17:42 24.0 16.3 62 1014.3 8.3 N 9.8 0.0 0.0
17:43 24.0 16.3 62 1014.4 8.3 N 9.8 0.0 0.0
17:44 24.0 16.3 62 1014.6 7.6 NW 8.3 0.0 0.0
17:45 24.0 16.0 61 1014.7 5.4 N 8.3 0.0 0.0
17:46 24.0 16.0 61 1014.7 5.4 N 8.3 0.0 0.0
17:47 24.0 16.0 61 1014.5 5.4 N 8.3 0.0 0.0
17:48 24.0 16.0 61 1014.6 5.4 NE 8.3 0.0 0.0
17:49 24.0 16.0 61 1014.6 5.4 NE 8.3 0.0 0.0
17:50 24.0 16.0 61 1014.4 6.9 N 8.3 0.0 0.0
17:51 23.9 15.9 61 1014.5 4.5 E 8.3 0.0 0.0
17:52 23.8 16.1 62 1014.5 4.5 N 8.3 0.0 0.0
17:53 23.8 16.1 62 1014.5 5.4 N 8.3 0.0 0.0
17:54 23.8 15.8 61 1014.4 8.3 N 8.3 0.0 0.0
17:55 23.8 15.8 61 1014.5 8.3 N 8.3 0.0 0.0
17:56 23.7 15.8 61 1014.7 7.6 NW 8.3 0.0 0.0
17:57 23.6 15.7 61 1014.6 6.0 NW 8.3 0.0 0.0
17:58 23.6 15.7 61 1014.6 6.0 NW 8.3 0.0 0.0
17:59 23.6 15.7 61 1014.8 4.5 NW 8.3 0.0 0.0
18:00 23.5 15.6 61 1014.9 6.0 NW 8.3 0.0 0.0
18:01 23.5 15.6 61 1014.6 6.0 NW 8.3 0.0 0.0
18:02 23.5 15.6 61 1014.7 6.0 NW 8.3 0.0 0.0
18:03 23.5 15.6 61 1014.6 6.0 NW 8.3 0.0 0.0
18:04 23.5 15.6 61 1015.0 6.0 NW 8.3 0.0 0.0
18:05 23.5 15.6 61 1014.7 6.0 NW 8.3 0.0 0.0
18:06 23.3 15.6 62 1014.6 9.2 NW 9.2 0.0 0.0
18:07 23.3 15.6 62 1014.9 4.5 N 9.2 0.0 0.0
18:08 23.3 15.6 62 1014.6 5.4 NE 9.2 0.0 0.0
18:09 23.2 15.5 62 1014.5 6.0 N 9.2 0.0 0.0
18:10 23.2 15.5 62 1014.9 9.2 NW 9.2 0.0 0.0
18:11 23.1 15.7 63 1014.7 4.5 N 9.2 0.0 0.0
18:12 23.1 15.7 63 1014.7 3.8 NE 9.2 0.0 0.0
18:13 23.1 15.7 63 1014.8 3.8 NE 9.2 0.0 0.0
18:14 23.1 15.7 63 1014.8 3.8 NE 9.2 0.0 0.0
18:15 23.1 15.7 63 1014.7 4.5 W 9.2 0.0 0.0
18:16 23.1 15.7 63 1014.7 5.4 N 9.2 0.0 0.0
18:17 23.0 15.6 63 1014.7 9.8 N 9.8 0.0 0.0
18:18 23.0 15.3 62 1014.7 9.8 N 9.8 0.0 0.0
18:19 22.8 15.4 63 1015.0 7.6 NW 9.8 0.0 0.0
18:20 22.7 15.3 63 1014.7 7.6 NW 9.8 0.0 0.0
18:21 22.7 15.3 63 1014.8 6.9 W 9.8 0.0 0.0
18:22 22.6 15.2 63 1014.9 6.9 NE 9.8 0.0 0.0
18:23 22.6 15.2 63 1014.7 8.3 E 9.8 0.0 0.0
18:24 22.5 15.4 64 1014.7 5.4 SW 9.8 0.0 0.0
18:25 22.5 15.4 64 1014.7 5.4 NW 9.8 0.0 0.0
18:26 22.6 15.5 64 1014.8 5.4 NW 9.8 0.0 0.0
18:27 22.6 15.5 64 1014.9 5.4 NW 9.8 0.0 0.0
18:28 22.5 15.4 64 1015.0 10.7 N 10.7 0.0 0.0
18:29 22.3 15.9 67 1014.8 8.3 N 10.7 0.0 0.0
18:30 22.2 15.8 67 1014.8 8.3 N 10.7 0.0 0.0
18:31 22.2 16.0 68 1014.9 4.5 NE 10.7 0.0 0.0
18:32 22.1 16.2 69 1014.8 4.5 N 10.7 0.0 0.0
18:33 22.1 16.2 69 1014.9 4.5 N 10.7 0.0 0.0
18:34 22.1 16.2 69 1015.0 4.5 E 10.7 0.0 0.0
18:35 22.0 16.1 69 1015.0 8.3 NE 10.7 0.0 0.0
18:36 22.0 16.1 69 1015.0 8.3 NE 10.7 0.0 0.0
18:37 22.0 16.1 69 1014.9 8.3 NE 10.7 0.0 0.0
18:38 21.7 16.0 70 1015.1 6.9 NW 10.7 0.0 0.0
18:39 21.7 16.0 70 1014.9 6.9 NW 10.7 0.0 0.0
18:40 21.6 15.9 70 1014.7 6.0 N 8.3 0.0 0.0
18:42 21.3 15.6 70 1014.9 9.8 N 9.8 0.0 0.0
18:43 21.2 15.5 70 1014.7 8.3 N 9.8 0.0 0.0
18:44 21.0 15.3 70 1014.9 7.6 NNW 9.8 0.0 0.0
18:45 21.0 15.3 70 1014.8 9.8 NW 9.8 0.0 0.0
18:46 20.9 15.2 70 1014.8 9.8 E 9.8 0.0 0.0
18:47 20.9 15.2 70 1014.8 9.8 E 9.8 0.0 0.0
18:48 20.8 15.4 71 1014.9 10.7 N 10.7 0.0 0.0
18:49 20.8 15.4 71 1014.9 8.3 N 10.7 0.0 0.0
18:50 20.8 15.4 71 1014.8 5.4 N 10.7 0.0 0.0
18:51 20.8 15.4 71 1014.7 7.6 N 10.7 0.0 0.0
18:52 20.8 15.4 71 1014.7 6.9 N 10.7 0.0 0.0
18:53 20.8 15.4 71 1014.5 5.4 N 10.7 0.0 0.0
18:54 20.8 15.4 71 1014.8 5.4 N 10.7 0.0 0.0
18:55 20.8 15.4 71 1014.7 9.8 N 10.7 0.0 0.0
18:56 20.9 15.5 71 1014.8 9.2 SW 10.7 0.0 0.0
18:57 20.9 15.5 71 1014.9 8.3 SW 10.7 0.0 0.0
18:58 20.9 15.5 71 1014.7 9.2 NW 10.7 0.0 0.0
18:59 20.9 15.5 71 1015.0 5.4 W 10.7 0.0 0.0
19:00 20.9 15.5 71 1014.9 5.4 W 9.8 0.0 0.0
19:01 20.9 15.5 71 1014.6 5.4 W 9.8 0.0 0.0
19:02 20.9 15.5 71 1014.8 5.4 W 9.8 0.0 0.0
19:03 20.9 15.5 71 1014.8 5.4 W 9.8 0.0 0.0
19:04 20.9 15.5 71 1014.7 5.4 W 9.8 0.0 0.0
19:05 20.9 15.2 70 1014.8 9.8 NW 9.8 0.0 0.0
19:06 20.9 15.2 70 1014.7 5.4 E 9.8 0.0 0.0
19:07 20.8 15.1 70 1014.8 5.4 W 9.8 0.0 0.0
19:08 20.7 15.0 70 1014.8 5.4 E 9.8 0.0 0.0
19:09 20.7 15.0 70 1014.8 5.4 E 9.8 0.0 0.0
19:10 20.7 15.0 70 1014.7 6.0 NE 9.8 0.0 0.0
19:11 20.7 15.0 70 1014.8 7.6 N 9.8 0.0 0.0
19:12 20.7 15.0 70 1014.6 7.6 NW 9.8 0.0 0.0
19:13 20.7 15.0 70 1014.8 9.2 N 9.8 0.0 0.0
19:14 20.6 15.0 70 1014.7 8.3 E 9.8 0.0 0.0
19:15 20.5 14.9 70 1014.8 7.6 NE 9.8 0.0 0.0
19:16 20.4 14.8 70 1014.7 7.6 N 9.2 0.0 0.0
19:17 20.4 14.8 70 1014.7 7.6 N 9.2 0.0 0.0
19:18 20.3 14.7 70 1014.9 6.0 NE 9.2 0.0 0.0
19:19 20.3 14.7 70 1014.8 9.8 S 9.8 0.0 0.0
19:20 20.2 14.6 70 1014.9 6.9 N 9.8 0.0 0.0
19:21 20.2 14.6 70 1014.9 6.9 N 9.8 0.0 0.0
19:22 20.2 14.8 71 1014.9 5.4 NW 9.8 0.0 0.0
19:23 20.1 14.7 71 1014.6 4.5 NE 9.8 0.0 0.0
19:24 20.1 14.7 71 1014.9 5.4 N 9.8 0.0 0.0
19:25 20.0 14.6 71 1014.9 5.4 NE 9.8 0.0 0.0
19:26 20.0 14.6 71 1014.9 8.3 WNW 9.8 0.0 0.0
19:27 19.9 14.5 71 1014.8 7.6 W 9.8 0.0 0.0
19:28 19.9 14.5 71 1014.9 7.6 NE 9.8 0.0 0.0
19:29 19.8 14.4 71 1015.0 7.6 ESE 9.8 0.0 0.0
19:30 19.8 14.4 71 1014.9 6.9 E 8.3 0.0 0.0
19:31 19.7 14.3 71 1014.8 6.9 NE 8.3 0.0 0.0
19:32 19.7 14.3 71 1015.0 2.2 SE 8.3 0.0 0.0
19:33 19.7 14.5 72 1014.8 6.0 NE 8.3 0.0 0.0
19:34 19.7 14.5 72 1014.9 6.0 E 8.3 0.0 0.0
19:35 19.7 14.5 72 1014.9 9.2 NE 9.2 0.0 0.0
19:36 19.7 14.5 72 1015.0 6.0 NW 9.2 0.0 0.0
19:37 19.7 14.5 72 1015.0 6.0 NW 9.2 0.0 0.0
19:38 19.7 14.5 72 1015.0 9.2 N 9.2 0.0 0.0
19:39 19.6 14.4 72 1015.0 6.9 NE 9.2 0.0 0.0
19:40 19.6 14.4 72 1015.0 6.9 N 9.2 0.0 0.0
19:41 19.6 14.4 72 1014.9 6.9 N 9.2 0.0 0.0
19:42 19.5 14.3 72 1015.0 4.5 N 9.2 0.0 0.0
19:43 19.4 14.2 72 1014.9 3.8 NE 9.2 0.0 0.0
19:44 19.4 14.2 72 1014.9 5.4 N 9.2 0.0 0.0
19:45 19.4 14.2 72 1014.8 6.9 NW 9.2 0.0 0.0
19:46 19.3 14.1 72 1015.0 5.4 NW 9.2 0.0 0.0
19:47 19.3 14.1 72 1015.1 7.6 NW 9.2 0.0 0.0
19:48 19.3 14.1 72 1015.0 3.8 N 9.2 0.0 0.0
19:49 19.2 14.0 72 1015.0 7.6 NW 7.6 0.0 0.0
19:50 19.2 14.0 72 1015.0 6.0 NW 7.6 0.0 0.0
19:51 19.2 14.0 72 1015.0 6.0 N 7.6 0.0 0.0
19:52 19.2 14.0 72 1015.2 3.8 N 7.6 0.0 0.0
19:53 19.2 14.0 72 1015.0 5.4 N 7.6 0.0 0.0
19:54 19.2 14.0 72 1015.1 5.4 N 7.6 0.0 0.0
19:55 19.1 13.9 72 1015.1 7.6 NW 7.6 0.0 0.0
19:56 19.1 13.9 72 1015.1 8.3 E 8.3 0.0 0.0
19:57 19.1 13.9 72 1014.9 9.2 N 9.2 0.0 0.0
19:58 19.1 13.9 72 1015.2 9.2 W 9.2 0.0 0.0
19:59 19.1 13.9 72 1015.0 7.6 NE 9.2 0.0 0.0
20:00 19.1 13.9 72 1014.7 6.9 N 9.2 0.0 0.0
20:01 19.1 13.9 72 1015.0 6.9 N 9.2 0.0 0.0
20:02 19.1 13.9 72 1015.0 6.9 N 9.2 0.0 0.0
20:03 19.1 13.9 72 1014.9 6.9 N 9.2 0.0 0.0
20:04 19.1 13.9 72 1015.0 6.9 N 9.2 0.0 0.0
20:05 19.1 13.9 72 1015.0 6.9 N 9.2 0.0 0.0
20:06 19.0 13.8 72 1015.0 9.2 S 9.2 0.0 0.0
20:07 18.9 13.8 72 1015.0 8.3 NE 9.2 0.0 0.0
20:08 18.9 13.8 72 1015.0 4.5 N 9.2 0.0 0.0
20:09 18.9 13.8 72 1014.8 3.8 NE 9.2 0.0 0.0
20:10 18.9 13.8 72 1014.7 6.9 NE 9.2 0.0 0.0
20:11 18.8 13.7 72 1014.7 7.6 NE 9.2 0.0 0.0
20:12 18.8 13.7 72 1015.0 10.7 N 10.7 0.0 0.0
20:13 18.8 13.7 72 1014.8 7.6 W 10.7 0.0 0.0
20:14 18.7 13.6 72 1014.7 5.4 N 10.7 0.0 0.0
20:15 18.7 13.8 73 1015.2 8.3 N 10.7 0.0 0.0
20:16 18.6 13.7 73 1015.0 7.6 ENE 10.7 0.0 0.0
20:17 18.6 13.7 73 1014.9 6.9 N 10.7 0.0 0.0
20:18 18.6 13.7 73 1015.0 8.3 NW 10.7 0.0 0.0
20:19 18.6 13.7 73 1014.9 8.3 NE 10.7 0.0 0.0
20:20 18.5 13.6 73 1015.1 8.3 NE 10.7 0.0 0.0
20:21 18.5 13.6 73 1015.1 8.3 NE 10.7 0.0 0.0
20:22 18.5 13.6 73 1014.9 9.2 E 10.7 0.0 0.0
20:23 18.4 13.5 73 1015.1 4.5 W 9.2 0.0 0.0
20:24 18.4 13.5 73 1015.2 3.1 N 9.2 0.0 0.0
20:25 18.4 13.5 73 1015.2 4.5 NW 9.2 0.0 0.0
20:26 18.3 13.4 73 1015.3 5.4 N 9.2 0.0 0.0
20:27 18.3 13.4 73 1015.1 3.1 N 9.2 0.0 0.0
20:28 18.3 13.4 73 1015.1 6.0 N 9.2 0.0 0.0
20:29 18.2 13.3 73 1015.1 5.4 NW 9.2 0.0 0.0
20:30 18.2 13.3 73 1015.2 9.8 NE 9.8 0.0 0.0
20:31 18.2 13.5 74 1014.9 9.8 W 9.8 0.0 0.0
20:32 18.1 13.4 74 1015.0 10.7 N 10.7 0.0 0.0
20:33 18.1 13.4 74 1015.2 9.2 N 10.7 0.0 0.0
20:34 18.1 13.4 74 1015.2 9.2 N 10.7 0.0 0.0
20:35 18.0 13.3 74 1015.1 6.0 E 10.7 0.0 0.0
20:36 18.0 13.3 74 1015.2 3.8 N 10.7 0.0 0.0
20:37 18.0 13.3 74 1015.2 3.8 N 10.7 0.0 0.0
20:38 18.0 13.3 74 1015.3 4.5 NW 10.7 0.0 0.0
20:39 17.9 13.2 74 1015.2 7.6 NE 10.7 0.0 0.0
20:40 17.9 13.2 74 1015.2 8.3 N 10.7 0.0 0.0
20:41 17.9 13.2 74 1015.1 8.3 NE 10.7 0.0 0.0
20:42 17.9 13.2 74 1015.2 4.5 N 10.7 0.0 0.0
20:43 17.8 13.3 75 1015.4 4.5 NE 10.7 0.0 0.0
20:44 17.8 13.3 75 1015.3 4.5 W 9.2 0.0 0.0
20:45 17.8 13.3 75 1015.4 6.9 NE 8.3 0.0 0.0
20:46 17.8 13.3 75 1015.2 5.4 W 8.3 0.0 0.0
20:47 17.8 13.3 75 1015.0 3.8 N 8.3 0.0 0.0
20:48 17.8 13.3 75 1015.4 4.5 NE 8.3 0.0 0.0
20:49 17.8 13.3 75 1015.1 4.5 S 8.3 0.0 0.0
20:50 17.8 13.3 75 1015.4 5.4 N 8.3 0.0 0.0
20:51 17.8 13.3 75 1015.5 3.8 N 6.9 0.0 0.0
20:52 17.8 13.5 76 1015.2 6.0 SW 6.9 0.0 0.0
20:53 17.8 13.5 76 1015.2 6.0 SW 6.9 0.0 0.0
20:54 17.7 13.4 76 1015.4 6.9 N 6.9 0.0 0.0
20:55 17.7 13.4 76 1015.5 4.5 NE 6.9 0.0 0.0
20:56 17.7 13.4 76 1015.5 3.1 N 6.9 0.0 0.0
20:57 17.7 13.4 76 1015.3 2.2 NW 6.9 0.0 0.0
20:58 17.7 13.4 76 1015.4 1.6 N 6.9 0.0 0.0
20:59 17.7 13.4 76 1015.4 6.0 NW 6.9 0.0 0.0
21:00 17.7 13.4 76 1015.4 6.0 NW 6.9 0.0 0.0
21:01 17.7 13.4 76 1015.4 6.0 NW 6.9 0.0 0.0
21:02 17.7 13.4 76 1015.5 6.0 NW 6.9 0.0 0.0
21:03 17.7 13.4 76 1015.6 6.0 NW 6.9 0.0 0.0
21:04 17.7 13.4 76 1015.5 6.0 NW 6.9 0.0 0.0
21:05 17.7 13.4 76 1015.5 6.0 NW 6.0 0.0 0.0
21:06 17.7 13.4 76 1015.7 6.0 NW 6.0 0.0 0.0
21:07 17.6 13.3 76 1015.6 6.9 NW 6.9 0.0 0.0
21:08 17.6 13.3 76 1015.5 6.9 NW 6.9 0.0 0.0
21:09 17.6 13.3 76 1015.6 5.4 NE 6.9 0.0 0.0
21:10 17.6 13.3 76 1015.6 5.4 NE 6.9 0.0 0.0
21:11 17.5 13.2 76 1015.6 9.2 N 9.2 0.0 0.0
21:12 17.5 13.2 76 1015.5 9.2 N 9.2 0.0 0.0
21:13 17.5 13.2 76 1015.4 9.2 N 9.2 0.0 0.0
21:14 17.5 13.2 76 1015.4 9.2 N 9.2 0.0 0.0
21:15 17.5 13.2 76 1015.5 6.9 NW 9.2 0.0 0.0
21:16 17.5 13.2 76 1015.6 6.0 W 9.2 0.0 0.0
21:17 17.4 13.9 80 1015.5 7.6 N 9.2 0.0 0.0
21:18 17.4 13.9 80 1015.2 9.2 NE 9.2 0.0 0.0
21:19 17.4 13.9 80 1015.4 9.2 NE 9.2 0.0 0.0
21:20 17.4 13.9 80 1015.5 4.5 NE 9.2 0.0 0.0
21:21 17.4 13.9 80 1015.4 6.9 N 9.2 0.0 0.0
21:22 17.4 13.9 80 1015.5 5.4 N 9.2 0.0 0.0
21:23 17.3 13.8 80 1015.6 6.0 N 9.2 0.0 0.0
21:24 17.3 13.8 80 1015.6 3.8 NW 9.2 0.0 0.0
21:25 17.3 14.0 81 1015.6 9.2 N 9.2 0.0 0.0
21:26 17.3 14.0 81 1015.6 4.5 N 9.2 0.0 0.0
21:27 17.3 14.0 81 1015.6 8.3 NE 9.2 0.0 0.0
21:28 17.3 14.0 81 1015.5 6.9 N 9.2 0.0 0.0
21:29 17.3 14.0 81 1015.6 6.0 W 9.2 0.0 0.0
21:30 17.3 14.0 81 1015.6 8.3 SW 9.2 0.0 0.0
21:31 17.3 14.0 81 1015.4 6.9 N 9.2 0.0 0.0
21:32 17.3 14.0 81 1015.5 6.9 N 9.2 0.0 0.0
21:33 17.3 14.0 81 1015.5 6.0 NE 9.2 0.0 0.0
21:34 17.3 14.0 81 1015.4 6.0 NE 9.2 0.0 0.0
21:35 17.3 14.0 81 1015.5 6.0 N 8.3 0.0 0.0
21:36 17.3 14.0 81 1015.4 4.5 E 8.3 0.0 0.0
21:37 17.3 14.0 81 1015.5 7.6 NW 8.3 0.0 0.0
21:38 17.3 14.0 81 1015.5 7.6 NW 8.3 0.0 0.0
21:39 17.3 14.0 81 1015.7 4.5 NE 8.3 0.0 0.0
21:40 17.2 13.9 81 1015.5 6.9 N 7.6 0.0 0.0
21:41 17.2 13.9 81 1015.4 6.9 N 7.6 0.0 0.0
21:42 17.2 13.9 81 1015.6 10.7 N 10.7 0.0 0.0
21:43 17.2 13.9 81 1015.6 6.9 NW 10.7 0.0 0.0
21:44 17.2 13.9 81 1015.2 8.3 NW 10.7 0.0 0.0
21:45 17.2 13.9 81 1015.5 5.4 N 10.7 0.0 0.0
21:46 17.2 13.9 81 1015.5 5.4 N 10.7 0.0 0.0
21:47 17.2 13.9 81 1015.5 6.0 N 10.7 0.0 0.0
21:48 17.2 14.1 82 1015.6 6.9 NE 10.7 0.0 0.0
21:49 17.2 14.1 82 1015.4 9.8 W 10.7 0.0 0.0
21:50 17.2 14.1 82 1015.6 7.6 W 10.7 0.0 0.0
21:51 17.2 14.1 82 1015.5 7.6 N 10.7 0.0 0.0
21:52 17.2 14.1 82 1015.4 8.3 N 10.7 0.0 0.0
21:53 17.2 14.1 82 1015.4 8.3 N 9.8 0.0 0.0
21:54 17.2 14.1 82 1015.5 6.0 NW 9.8 0.0 0.0
21:55 17.2 14.1 82 1015.4 7.6 NW 9.8 0.0 0.0
21:56 17.2 14.1 82 1015.6 3.1 NE 9.8 0.0 0.0
21:57 17.2 14.1 82 1015.6 4.5 NE 9.8 0.0 0.0
21:58 17.2 14.1 82 1015.6 5.4 NE 9.8 0.0 0.0
21:59 17.2 14.1 82 1015.5 4.5 N 9.8 0.0 0.0
22:00 17.2 14.1 82 1015.5 5.4 NE 8.3 0.0 0.0
22:01 17.2 14.1 82 1015.8 6.9 NE 8.3 0.0 0.0
22:02 17.2 14.1 82 1015.5 6.9 NE 8.3 0.0 0.0
22:03 17.2 14.1 82 1015.5 4.5 N 7.6 0.0 0.0
22:04 17.2 14.1 82 1015.6 5.4 N 7.6 0.0 0.0
22:05 17.2 14.1 82 1015.4 4.5 N 7.6 0.0 0.0
22:06 17.2 14.1 82 1015.8 4.5 N 6.9 0.0 0.0
22:07 17.2 14.1 82 1015.6 3.1 NE 6.9 0.0 0.0
22:08 17.2 14.1 82 1015.6 6.9 N 6.9 0.0 0.0
22:09 17.2 14.1 82 1015.4 6.9 NW 6.9 0.0 0.0
22:10 17.2 14.1 82 1015.6 2.2 N 6.9 0.0 0.0
22:11 17.2 14.1 82 1015.6 3.8 NE 6.9 0.0 0.0
22:12 17.2 14.1 82 1015.6 6.9 W 6.9 0.0 0.0
22:13 17.1 14.0 82 1015.8 4.5 NE 6.9 0.0 0.0
22:14 17.1 14.0 82 1015.7 3.1 NE 6.9 0.0 0.0
22:15 17.1 14.0 82 1015.6 6.9 WNW 6.9 0.0 0.0
22:16 17.1 14.0 82 1015.6 6.9 S 6.9 0.0 0.0
22:17 17.1 14.0 82 1015.6 4.5 NNW 6.9 0.0 0.0
22:18 17.1 14.0 82 1015.8 4.5 N 6.9 0.0 0.0
22:19 17.1 14.0 82 1015.6 6.0 N 6.9 0.0 0.0
22:20 17.1 14.0 82 1015.7 3.8 NE 6.9 0.0 0.0
22:21 17.1 14.0 82 1015.5 4.5 NE 6.9 0.0 0.0
22:22 17.1 14.0 82 1015.3 5.4 N 6.9 0.0 0.0
22:23 17.1 14.0 82 1015.5 5.4 N 6.9 0.0 0.0
22:24 17.1 14.0 82 1015.6 3.1 NW 6.9 0.0 0.0
22:25 17.1 14.0 82 1015.6 3.8 N 6.9 0.0 0.0
22:26 17.1 14.0 82 1015.3 5.4 N 6.9 0.0 0.0
22:27 17.1 14.0 82 1015.5 3.1 NW 6.0 0.0 0.0
22:28 17.1 14.0 82 1015.7 3.1 NW 6.0 0.0 0.0
22:29 17.1 14.0 82 1015.5 5.4 N 6.0 0.0 0.0
22:30 17.1 14.0 82 1015.4 5.4 N 5.4 0.0 0.0
22:31 17.1 14.0 82 1015.6 7.6 N 7.6 0.0 0.0
22:32 17.1 14.0 82 1015.6 4.5 N 7.6 0.0 0.0
22:33 17.1 14.0 82 1015.6 4.5 NE 7.6 0.0 0.0
22:34 17.1 14.0 82 1015.5 3.8 E 7.6 0.0 0.0
22:35 17.0 13.9 82 1015.5 3.1 N 7.6 0.0 0.0
22:36 17.0 13.9 82 1015.4 8.3 N 8.3 0.0 0.0
22:37 17.0 13.9 82 1015.5 6.9 N 8.3 0.0 0.0
22:38 17.0 13.9 82 1015.7 6.0 N 8.3 0.0 0.0
22:39 17.0 13.9 82 1015.6 4.5 NE 8.3 0.0 0.0
22:40 17.0 13.9 82 1015.6 6.9 NW 8.3 0.0 0.0
22:41 17.0 13.9 82 1015.7 6.0 N 8.3 0.0 0.0
22:42 17.0 13.9 82 1015.7 7.6 N 8.3 0.0 0.0
22:43 17.0 13.9 82 1015.5 6.9 N 9.8 0.0 0.0
22:44 17.0 13.9 82 1015.5 6.0 N 9.8 0.0 0.0
22:45 16.9 13.8 82 1015.8 6.9 W 9.8 0.0 0.0
22:46 16.9 13.8 82 1015.5 6.9 N 9.8 0.0 0.0
22:47 16.9 13.8 82 1015.8 5.4 N 9.8 0.0 0.0
22:48 16.9 13.8 82 1015.6 5.4 N 9.8 0.0 0.0
22:49 16.9 13.8 82 1015.7 3.8 N 9.8 0.0 0.0
22:50 16.9 13.8 82 1015.4 9.2 NE 9.8 0.0 0.0
22:51 16.9 13.8 82 1015.5 6.0 NE 9.8 0.0 0.0
22:52 16.9 13.8 82 1015.7 6.9 N 9.8 0.0 0.0
22:53 16.8 13.7 82 1015.6 6.9 N 9.2 0.0 0.0
22:54 16.8 13.7 82 1015.5 4.5 N 9.2 0.0 0.0
22:55 16.8 13.7 82 1015.7 6.9 NE 9.2 0.0 0.0
22:56 16.8 13.9 83 1015.6 3.8 NE 9.2 0.0 0.0
22:57 16.8 13.9 83 1015.6 3.8 N 9.2 0.0 0.0
22:58 16.8 13.9 83 1015.7 4.5 N 9.2 0.0 0.0
22:59 16.8 13.9 83 1015.6 3.1 N 9.2 0.0 0.0
23:00 16.8 13.9 83 1015.6 3.8 W 9.2 0.0 0.0
23:01 16.8 13.9 83 1015.6 3.8 W 6.9 0.0 0.0
23:02 16.8 13.9 83 1015.6 3.8 W 6.9 0.0 0.0
23:03 16.8 13.9 83 1015.6 3.8 W 6.9 0.0 0.0
23:04 16.8 13.9 83 1015.8 3.8 W 6.9 0.0 0.0
23:05 16.8 13.9 83 1015.6 3.8 W 4.5 0.0 0.0
23:06 16.8 13.9 83 1015.6 3.8 W 4.5 0.0 0.0
23:07 16.8 13.9 83 1015.6 5.4 NE 5.4 0.0 0.0
23:08 16.8 13.9 83 1015.6 5.4 N 5.4 0.0 0.0
23:09 16.8 13.9 83 1015.7 5.4 NW 5.4 0.0 0.0
23:10 16.8 13.9 83 1015.7 6.0 N 6.0 0.0 0.0
23:11 16.8 13.9 83 1015.8 5.4 NE 6.0 0.0 0.0
23:12 16.8 13.9 83 1015.9 5.4 SW 6.0 0.0 0.0
23:13 16.8 13.9 83 1015.7 4.5 NE 6.0 0.0 0.0
23:14 16.7 13.8 83 1015.6 9.2 N 9.2 0.0 0.0
23:15 16.7 13.8 83 1015.7 6.0 N 9.2 0.0 0.0
23:16 16.7 13.8 83 1015.7 6.0 NW 9.2 0.0 0.0
23:17 16.7 13.8 83 1015.7 6.0 NE 9.2 0.0 0.0
23:18 16.7 13.8 83 1015.7 4.5 N 9.2 0.0 0.0
23:19 16.7 13.8 83 1015.8 5.4 NE 9.2 0.0 0.0
23:20 16.7 13.8 83 1015.7 3.8 NE 9.2 0.0 0.0
23:21 16.7 13.8 83 1015.6 3.8 N 9.2 0.0 0.0
23:22 16.7 13.8 83 1015.6 3.8 E 9.2 0.0 0.0
23:23 16.7 13.8 83 1015.8 3.1 NE 9.2 0.0 0.0
23:24 16.7 13.8 83 1015.7 3.8 NE 9.2 0.0 0.0
23:25 16.7 13.8 83 1015.6 5.4 N 6.0 0.0 0.0
23:26 16.7 13.8 83 1015.6 7.6 NE 7.6 0.0 0.0
23:27 16.7 13.8 83 1015.6 6.0 NE 7.6 0.0 0.0
23:28 16.7 13.8 83 1015.6 5.4 N 7.6 0.0 0.0
23:29 16.7 13.8 83 1015.7 7.6 N 7.6 0.0 0.0
23:30 16.7 13.8 83 1015.7 7.6 N 7.6 0.0 0.0
23:31 16.7 13.8 83 1015.6 3.8 N 7.6 0.0 0.0
23:32 16.7 13.8 83 1015.6 3.8 N 7.6 0.0 0.0
23:33 16.7 13.8 83 1015.6 6.0 N 7.6 0.0 0.0
23:34 16.7 13.8 83 1015.6 6.0 N 7.6 0.0 0.0
23:35 16.7 13.8 83 1015.4 5.4 NE 7.6 0.0 0.0
23:36 16.7 13.8 83 1015.6 9.8 N 9.8 0.0 0.0
23:37 16.7 13.8 83 1015.6 9.8 NE 9.8 0.0 0.0
23:38 16.7 13.8 83 1015.6 7.6 E 9.8 0.0 0.0
23:39 16.7 13.8 83 1015.5 6.9 W 9.8 0.0 0.0
23:40 16.7 13.8 83 1015.2 8.3 N 9.8 0.0 0.0
23:41 16.6 13.7 83 1015.6 6.0 NE 9.8 0.0 0.0
23:42 16.6 13.7 83 1015.6 3.8 SW 9.8 0.0 0.0
23:43 16.6 13.7 83 1015.5 3.8 SW 9.8 0.0 0.0
23:44 16.6 13.9 84 1015.6 5.4 NE 9.8 0.0 0.0
23:45 16.6 13.9 84 1015.5 8.3 N 9.8 0.0 0.0
23:46 16.6 13.9 84 1015.7 7.6 N 9.8 0.0 0.0
23:47 16.6 13.9 84 1015.7 5.4 NE 8.3 0.0 0.0
23:48 16.6 13.9 84 1015.5 8.3 N 8.3 0.0 0.0
23:49 16.6 13.9 84 1015.5 8.3 NE 8.3 0.0 0.0
23:50 16.6 13.9 84 1015.5 5.4 NW 8.3 0.0 0.0
23:51 16.6 13.9 84 1015.5 6.0 N 8.3 0.0 0.0
23:52 16.6 13.9 84 1015.7 6.0 N 8.3 0.0 0.0
23:53 16.6 13.9 84 1015.6 6.0 N 8.3 0.0 0.0
23:54 16.6 13.9 84 1015.3 5.4 N 8.3 0.0 0.0
23:55 16.6 13.9 84 1015.4 5.4 N 8.3 0.0 0.0
23:56 16.6 13.9 84 1015.5 9.2 N 9.2 0.0 0.0
23:57 16.6 13.9 84 1015.5 6.0 NE 9.2 0.0 0.0
23:58 16.6 13.9 84 1015.4 5.4 N 9.2 0.0 0.0
23:59 16.6 13.9 84 1015.5 5.4 S 9.2 0.0 0.0

 

 

UK - WEATHER STATION TOPSITES - UK World Weather Websites

Copyright © Carnkie Weather 2009 - 2020.